WA4BPS Weather Reports


time (UTC)temp
F
wind
direction
speed
knots
gust
knots
rain 1hr
in
rain 24hr
in
rain mn
in
humidity
%
barometer
mb
20260904051133 80 92 4.3 5.2 0.00 0.00 0.00 66 1014.3
20260904051032 80 95 3.5 5.2 0.00 0.00 0.00 66 1014.3
20260904050931 80 95 3.5 5.2 0.00 0.00 0.00 66 1014.3
20260904050829 80 92 2.6 5.2 0.00 0.00 0.00 66 1014.3
20260904050727 80 93 2.6 5.2 0.00 0.00 0.00 66 1014.3
20260904050625 80 93 4.3 5.2 0.00 0.00 0.00 67 1014.3
20260904050528 80 92 3.5 5.2 0.00 0.00 0.00 67 1014.3
20260904050426 80 92 2.6 5.2 0.00 0.00 0.00 68 1014.3
20260904050328 80 95 3.5 5.2 0.00 0.00 0.00 68 1014.3
20260904050247 80 93 4.3 5.2 0.00 0.00 0.00 68 1014.3
20260904050156 80 93 4.3 5.2 0.00 0.00 0.00 68 1014.3
20260904050053 80 92 4.3 5.2 0.00 0.00 0.00 68 1014.3
20260904045932 80 93 3.5 5.2 0.00 0.00 0.00 68 1014.3
20260904045830 80 92 2.6 5.2 0.00 0.00 0.00 68 1014.3
20260904045730 80 90 3.5 5.2 0.00 0.00 0.00 68 1014.3
20260904045631 80 90 3.5 5.2 0.00 0.00 0.00 68 1014.3
20260904045530 80 90 3.5 5.2 0.00 0.00 0.00 68 1014.3
20260904045430 80 92 4.3 5.2 0.00 0.00 0.00 68 1014.3
20260904045327 80 92 4.3 5.2 0.00 0.00 0.00 68 1014.3
20260904045225 80 92 4.3 5.2 0.00 0.00 0.00 68 1014.3
20260904045143 80 90 3.5 5.2 0.00 0.00 0.00 68 1014.3
20260904045026 80 92 4.3 5.2 0.00 0.00 0.00 68 1014.3
20260904044945 80 93 4.3 5.2 0.00 0.00 0.00 68 1014.3
20260904044903 80 92 3.5 5.2 0.00 0.00 0.00 68 1014.3
20260904044741 80 93 3.5 5.2 0.00 0.00 0.00 68 1014.3
20260904044711 80 92 4.3 5.2 0.00 0.00 0.00 68 1014.3
20260904044527 80 90 3.5 5.2 0.00 0.00 0.00 68 1014.3
20260904044425 80 93 4.3 5.2 0.00 0.00 0.00 68 1014.3
20260904044342 80 93 4.3 5.2 0.00 0.00 0.00 68 1014.3
20260904044301 80 89 4.3 5.2 0.00 0.00 0.00 68 1014.2
20260904044124 80 93 4.3 5.2 0.00 0.00 0.00 68 1014.2
20260904044043 80 93 4.3 5.2 0.00 0.00 0.00 68 1014.2
20260904043940 80 89 4.3 5.2 0.00 0.00 0.00 69 1014.2
20260904043840 80 92 4.3 5.2 0.00 0.00 0.00 69 1014.2
20260904043739 80 92 4.3 5.2 0.00 0.00 0.00 70 1014.2
20260904043638 80 93 4.3 5.2 0.00 0.00 0.00 70 1014.2
20260904043536 80 93 3.5 5.2 0.00 0.00 0.00 70 1014.2
20260904043441 80 90 4.3 5.2 0.00 0.00 0.00 71 1014.2
20260904043359 80 90 4.3 5.2 0.00 0.00 0.00 71 1014.2
20260904043256 81 90 4.3 5.2 0.00 0.00 0.00 71 1014.2
20260904043205 81 92 4.3 5.2 0.00 0.00 0.00 71 1014.2
20260904043041 81 90 4.3 5.2 0.00 0.00 0.00 71 1014.2
20260904042940 81 92 4.3 4.3 0.00 0.00 0.00 70 1014.2
20260904042838 81 92 3.5 4.3 0.00 0.00 0.00 70 1014.2
20260904042738 81 92 3.5 4.3 0.00 0.00 0.00 70 1014.2
20260904042700 81 90 2.6 4.3 0.00 0.00 0.00 70 1014.2
20260904042539 81 90 2.6 5.2 0.00 0.00 0.00 69 1014.2
20260904042437 81 90 3.5 5.2 0.00 0.00 0.00 69 1014.2
20260904042356 81 90 2.6 5.2 0.00 0.00 0.00 69 1014.2
20260904042234 81 90 1.7 5.2 0.00 0.00 0.00 69 1014.2
20260904042152 81 92 2.6 5.2 0.00 0.00 0.00 68 1014.2
20260904042049 81 88 3.5 5.2 0.00 0.00 0.00 68 1014.2
20260904041926 81 90 3.5 5.2 0.00 0.00 0.00 68 1014.2
20260904041828 81 88 3.5 5.2 0.00 0.00 0.00 68 1014.2
20260904041728 81 89 3.5 5.2 0.00 0.00 0.00 68 1014.2
20260904041701 81 89 3.5 5.2 0.00 0.00 0.00 69 1014.2
20260904041540 81 89 2.6 5.2 0.00 0.00 0.00 69 1014.2
20260904041457 81 90 3.5 5.2 0.00 0.00 0.00 69 1014.2
20260904041334 81 89 3.5 5.2 0.00 0.00 0.00 68 1014.2
20260904041233 81 88 2.6 5.2 0.00 0.00 0.00 67 1014.5
20260904041152 81 90 2.6 5.2 0.00 0.00 0.00 67 1014.5
20260904041033 81 85 2.6 5.2 0.00 0.00 0.00 67 1014.5
20260904040931 81 88 3.5 5.2 0.00 0.00 0.00 69 1014.5
20260904040830 81 89 3.5 5.2 0.00 0.00 0.00 70 1014.5
20260904040729 81 89 3.5 5.2 0.00 0.00 0.00 69 1014.5
20260904040627 81 89 3.5 5.2 0.00 0.00 0.00 68 1014.5
20260904040525 81 89 2.6 5.2 0.00 0.00 0.00 68 1014.5
20260904040424 81 89 3.5 5.2 0.00 0.00 0.00 68 1014.5
20260904040326 81 88 2.6 5.2 0.00 0.00 0.00 67 1014.5
20260904040146 81 85 3.5 5.2 0.00 0.00 0.00 67 1014.5
20260904040043 81 88 3.5 5.2 0.00 0.00 0.00 67 1014.5
20260904035941 81 88 2.6 5.2 0.00 0.00 0.00 68 1014.5
20260904035859 81 88 3.5 5.2 0.00 0.00 0.00 68 1014.5
20260904035736 81 88 4.3 5.2 0.00 0.00 0.00 68 1014.7
20260904035635 81 86 4.3 5.2 0.00 0.00 0.00 68 1014.7
20260904035533 81 88 4.3 5.2 0.00 0.00 0.00 67 1014.7
20260904035436 81 88 3.5 5.2 0.00 0.00 0.00 67 1014.7
20260904035335 81 88 4.3 5.2 0.00 0.00 0.00 67 1014.7
20260904035254 81 90 4.3 5.2 0.00 0.00 0.00 67 1014.7
20260904035131 81 103 4.3 5.2 0.00 0.00 0.00 67 1014.7
20260904035029 80 117 4.3 5.2 0.00 0.00 0.00 68 1014.7
20260904034926 80 143 4.3 5.2 0.00 0.00 0.00 68 1014.7
20260904034843 80 143 4.3 5.2 0.00 0.00 0.00 68 1014.7
20260904034743 80 144 3.5 4.3 0.00 0.00 0.00 68 1014.7
20260904034713 80 144 3.5 4.3 0.00 0.00 0.00 69 1014.7
20260904034554 80 145 3.5 4.3 0.00 0.00 0.00 69 1014.7
20260904034431 80 144 2.6 4.3 0.00 0.00 0.00 69 1014.7
20260904034329 80 143 3.5 4.3 0.00 0.00 0.00 69 1014.7
20260904034227 80 141 2.6 4.3 0.00 0.00 0.00 69 1014.8
20260904034125 80 144 2.6 4.3 0.00 0.00 0.00 69 1014.8
20260904034043 80 144 2.6 4.3 0.00 0.00 0.00 68 1014.8
20260904033941 80 144 3.5 5.2 0.00 0.00 0.00 68 1014.8
20260904033839 80 144 2.6 5.2 0.00 0.00 0.00 69 1014.8
20260904033742 80 141 2.6 5.2 0.00 0.00 0.00 69 1014.8
20260904033640 80 144 2.6 5.2 0.00 0.00 0.00 69 1014.8
20260904033535 80 143 2.6 5.2 0.00 0.00 0.00 69 1014.8
20260904033454 80 144 3.5 5.2 0.00 0.00 0.00 68 1014.8
20260904033332 80 144 3.5 5.2 0.00 0.00 0.00 68 1014.8
20260904033250 80 147 3.5 5.2 0.00 0.00 0.00 68 1014.8
20260904033200 80 148 3.5 5.2 0.00 0.00 0.00 68 1014.8
20260904033038 80 150 4.3 5.2 0.00 0.00 0.00 68 1014.8
20260904032941 80 150 3.5 5.2 0.00 0.00 0.00 69 1014.8
20260904032841 81 151 3.5 4.3 0.00 0.00 0.00 69 1014.8
20260904032720 81 151 2.6 4.3 0.00 0.00 0.00 70 1014.9
20260904032642 81 151 3.5 4.3 0.00 0.00 0.00 70 1014.9
20260904032540 81 151 4.3 4.3 0.00 0.00 0.00 70 1014.9
20260904032439 81 151 3.5 4.3 0.00 0.00 0.00 71 1014.9
20260904032359 81 154 2.6 4.3 0.00 0.00 0.00 71 1014.9
20260904032242 81 154 2.6 4.3 0.00 0.00 0.00 71 1014.9
20260904032140 81 155 3.5 4.3 0.00 0.00 0.00 71 1014.9
20260904032039 81 154 3.5 4.3 0.00 0.00 0.00 71 1014.9
20260904031957 81 152 3.5 4.3 0.00 0.00 0.00 70 1014.9
20260904031854 81 155 1.7 4.3 0.00 0.00 0.00 70 1014.9
20260904031753 81 152 1.7 4.3 0.00 0.00 0.00 71 1014.9
20260904031701 81 155 2.6 4.3 0.00 0.00 0.00 71 1014.9
20260904031540 81 155 2.6 4.3 0.00 0.00 0.00 70 1014.9
20260904031438 81 161 1.7 4.3 0.00 0.00 0.00 71 1014.9
20260904031341 81 162 2.6 4.3 0.00 0.00 0.00 71 1014.9
20260904031239 81 162 2.6 4.3 0.00 0.00 0.00 71 1014.0
20260904031137 81 162 2.6 4.3 0.00 0.00 0.00 70 1014.0
20260904031036 81 162 1.7 4.3 0.00 0.00 0.00 70 1014.0
20260904030934 81 161 1.7 4.3 0.00 0.00 0.00 70 1014.0
20260904030832 81 162 1.7 4.3 0.00 0.00 0.00 70 1014.0
20260904030734 81 161 1.7 4.3 0.00 0.00 0.00 70 1014.0
20260904030634 81 162 2.6 4.3 0.00 0.00 0.00 70 1014.0
20260904030553 81 162 2.6 4.3 0.00 0.00 0.00 71 1014.0
20260904030429 81 162 1.7 4.3 0.00 0.00 0.00 70 1014.0
20260904030329 81 162 2.6 4.3 0.00 0.00 0.00 70 1014.0
20260904030239 81 162 2.6 4.3 0.00 0.00 0.00 71 1014.0
20260904030150 81 164 2.6 4.3 0.00 0.00 0.00 70 1014.0
20260904030026 81 165 2.6 4.3 0.00 0.00 0.00 70 1014.0
20260904025930 81 162 2.6 4.3 0.00 0.00 0.00 70 1014.0
20260904025830 81 161 2.6 4.3 0.00 0.00 0.00 70 1014.0
20260904025728 81 164 2.6 4.3 0.00 0.00 0.00 70 1014.0
20260904025646 81 164 2.6 4.3 0.00 0.00 0.00 70 1014.0
20260904025605 81 165 2.6 4.3 0.00 0.00 0.00 70 1014.0
20260904025442 81 164 2.6 4.3 0.00 0.00 0.00 70 1014.0
20260904025340 81 164 2.6 4.3 0.00 0.00 0.00 70 1014.0
20260904025224 81 164 2.6 4.3 0.00 0.00 0.00 70 1014.0
20260904025142 81 162 2.6 4.3 0.00 0.00 0.00 70 1014.0
20260904025039 81 164 2.6 4.3 0.00 0.00 0.00 70 1014.0
20260904024937 81 162 2.6 4.3 0.00 0.00 0.00 70 1014.0
20260904024836 81 165 3.5 4.3 0.00 0.00 0.00 70 1014.0
20260904024705 81 164 2.6 4.3 0.00 0.00 0.00 69 1014.0
20260904024602 81 164 2.6 4.3 0.00 0.00 0.00 69 1014.0
20260904024443 81 158 2.6 4.3 0.00 0.00 0.00 69 1014.0
20260904024402 81 164 3.5 4.3 0.00 0.00 0.00 69 1014.0
20260904024259 81 164 3.5 4.3 0.00 0.00 0.00 69 1014.0
20260904024137 81 160 2.6 4.3 0.00 0.00 0.00 69 1014.0
20260904024035 81 164 2.6 4.3 0.00 0.00 0.00 70 1014.0
20260904023933 81 164 2.6 3.5 0.00 0.00 0.00 70 1014.0
20260904023832 81 164 2.6 3.5 0.00 0.00 0.00 70 1014.0
20260904023751 81 164 2.6 3.5 0.00 0.00 0.00 70 1014.0
20260904023634 81 165 2.6 2.6 0.00 0.00 0.00 69 1014.0
20260904023531 81 164 1.7 3.5 0.00 0.00 0.00 69 1014.0
20260904023451 81 162 2.6 3.5 0.00 0.00 0.00 69 1014.0
20260904023328 82 164 2.6 3.5 0.00 0.00 0.00 69 1014.0
20260904023257 82 164 2.6 3.5 0.00 0.00 0.00 69 1014.0
20260904023147 82 164 1.7 3.5 0.00 0.00 0.00 69 1014.0
20260904023043 82 164 1.7 3.5 0.00 0.00 0.00 69 1014.0
20260904022942 82 162 1.7 3.5 0.00 0.00 0.00 68 1014.0
20260904022840 82 162 1.7 3.5 0.00 0.00 0.00 68 1014.0
20260904022736 82 165 2.6 3.5 0.00 0.00 0.00 69 1013.8
20260904022639 82 158 1.7 4.3 0.00 0.00 0.00 69 1013.8
20260904022557 82 164 2.6 4.3 0.00 0.00 0.00 69 1013.8
20260904022433 82 160 2.6 4.3 0.00 0.00 0.00 69 1013.8
20260904022330 82 161 2.6 4.3 0.00 0.00 0.00 69 1013.8
20260904022229 82 165 1.7 4.3 0.00 0.00 0.00 69 1013.8
20260904022128 82 164 2.6 4.3 0.00 0.00 0.00 68 1013.8
20260904022027 82 165 2.6 4.3 0.00 0.00 0.00 69 1013.8
20260904021946 82 164 2.6 4.3 0.00 0.00 0.00 69 1013.8
20260904021825 82 167 2.6 4.3 0.00 0.00 0.00 68 1013.8
20260904021736 82 165 2.6 4.3 0.00 0.00 0.00 68 1013.8
20260904021646 82 167 3.5 4.3 0.00 0.00 0.00 67 1013.8
20260904021543 82 167 2.6 4.3 0.00 0.00 0.00 67 1013.8
20260904021441 82 167 2.6 4.3 0.00 0.00 0.00 67 1013.8
20260904021340 82 165 1.7 2.6 0.00 0.00 0.00 67 1013.8
20260904021238 82 167 1.7 2.6 0.00 0.00 0.00 67 1013.8
20260904021157 82 165 1.7 2.6 0.00 0.00 0.00 67 1013.8
20260904021039 82 167 1.7 2.6 0.00 0.00 0.00 67 1013.8
20260904020937 82 165 1.7 2.6 0.00 0.00 0.00 67 1013.8
20260904020835 82 167 1.7 2.6 0.00 0.00 0.00 66 1013.8
20260904020733 82 165 1.7 2.6 0.00 0.00 0.00 66 1013.8
20260904020651 82 167 0.9 1.7 0.00 0.00 0.00 66 1013.8
20260904020528 82 167 0.9 2.6 0.00 0.00 0.00 66 1013.8
20260904020449 82 164 0.9 2.6 0.00 0.00 0.00 66 1013.8
20260904020329 82 164 0.0 2.6 0.00 0.00 0.00 66 1013.8
20260904020228 82 167 0.9 2.6 0.00 0.00 0.00 66 1013.8
20260904020157 82 165 0.9 2.6 0.00 0.00 0.00 66 1013.8
20260904020035 82 164 0.9 2.6 0.00 0.00 0.00 66 1013.8
20260904015932 82 165 0.9 2.6 0.00 0.00 0.00 66 1013.8
20260904015852 82 167 0.9 3.5 0.00 0.00 0.00 66 1013.8
20260904015729 82 165 1.7 3.5 0.00 0.00 0.00 66 1013.4
20260904015627 82 165 1.7 3.5 0.00 0.00 0.00 66 1013.4
20260904015528 82 167 1.7 3.5 0.00 0.00 0.00 66 1013.4
20260904015428 82 165 1.7 3.5 0.00 0.00 0.00 66 1013.4
20260904015327 83 165 1.7 3.5 0.00 0.00 0.00 66 1013.4
20260904015227 83 167 1.7 3.5 0.00 0.00 0.00 66 1013.4
20260904015126 83 167 1.7 4.3 0.00 0.00 0.00 66 1013.4
20260904015025 83 165 1.7 4.3 0.00 0.00 0.00 66 1013.4
20260904014928 83 164 1.7 4.3 0.00 0.00 0.00 66 1013.4
20260904014828 83 165 1.7 4.3 0.00 0.00 0.00 66 1013.4
20260904014737 83 167 1.7 4.3 0.00 0.00 0.00 66 1013.4
20260904014647 83 165 1.7 4.3 0.00 0.00 0.00 67 1013.4
20260904014545 83 167 1.7 4.3 0.00 0.00 0.00 67 1013.4
20260904014443 83 165 1.7 4.3 0.00 0.00 0.00 67 1013.4
20260904014342 83 167 2.6 4.3 0.00 0.00 0.00 67 1013.4
20260904014240 83 167 2.6 4.3 0.00 0.00 0.00 67 1013.3
20260904014158 83 162 1.7 4.3 0.00 0.00 0.00 68 1013.3
20260904014040 83 165 1.7 4.3 0.00 0.00 0.00 68 1013.3
20260904013940 83 167 1.7 4.3 0.00 0.00 0.00 67 1013.3
20260904013840 83 167 2.6 4.3 0.00 0.00 0.00 67 1013.3
20260904013737 83 165 2.6 4.3 0.00 0.00 0.00 67 1013.3
20260904013637 83 165 2.6 4.3 0.00 0.00 0.00 66 1013.3
20260904013535 83 167 3.5 4.3 0.00 0.00 0.00 66 1013.3
20260904013437 83 165 2.6 4.3 0.00 0.00 0.00 66 1013.3
20260904013334 83 168 1.7 4.3 0.00 0.00 0.00 66 1013.3
20260904013253 83 168 2.6 4.3 0.00 0.00 0.00 66 1013.3
20260904013224 83 169 1.7 3.5 0.00 0.00 0.00 66 1013.3
20260904013039 83 168 1.7 3.5 0.00 0.00 0.00 66 1013.3
20260904012936 83 168 1.7 3.5 0.00 0.00 0.00 66 1013.3
20260904012833 83 167 1.7 3.5 0.00 0.00 0.00 66 1013.3
20260904012732 83 169 1.7 3.5 0.00 0.00 0.00 66 1013.2
20260904012636 83 168 1.7 3.5 0.00 0.00 0.00 65 1013.2
20260904012536 83 165 2.6 3.5 0.00 0.00 0.00 65 1013.2
20260904012437 83 168 1.7 2.6 0.00 0.00 0.00 66 1013.2
20260904012335 83 169 0.9 2.6 0.00 0.00 0.00 66 1013.2
20260904012235 83 168 1.7 2.6 0.00 0.00 0.00 66 1013.2
20260904012135 83 168 1.7 4.3 0.00 0.00 0.00 65 1013.2
20260904012054 83 168 1.7 4.3 0.00 0.00 0.00 65 1013.2
20260904011936 83 169 1.7 4.3 0.00 0.00 0.00 65 1013.2
20260904011834 83 169 1.7 4.3 0.00 0.00 0.00 65 1013.2
20260904011733 83 168 2.6 4.3 0.00 0.00 0.00 65 1013.2
20260904011703 83 168 1.7 4.3 0.00 0.00 0.00 65 1013.2
20260904011540 83 168 1.7 4.3 0.00 0.00 0.00 65 1013.2
20260904011440 83 167 2.6 4.3 0.00 0.00 0.00 65 1013.2
20260904011338 83 169 2.6 4.3 0.00 0.00 0.00 66 1013.2
20260904011236 83 169 2.6 4.3 0.00 0.00 0.00 65 1013.1
20260904011139 83 169 1.7 4.3 0.00 0.00 0.00 65 1013.1
20260904011038 83 171 1.7 4.3 0.00 0.00 0.00 65 1013.1
20260904010940 83 168 1.7 4.3 0.00 0.00 0.00 65 1013.1
20260904010859 83 169 2.6 4.3 0.00 0.00 0.00 66 1013.1
20260904010737 83 169 2.6 4.3 0.00 0.00 0.00 65 1013.1
20260904010634 84 169 2.6 4.3 0.00 0.00 0.00 65 1013.1
20260904010533 84 169 2.6 4.3 0.00 0.00 0.00 65 1013.1
20260904010436 84 169 2.6 4.3 0.00 0.00 0.00 65 1013.1
20260904010333 84 169 2.6 4.3 0.00 0.00 0.00 65 1013.1
20260904010244 84 171 2.6 4.3 0.00 0.00 0.00 65 1013.1
20260904010154 84 172 2.6 4.3 0.00 0.00 0.00 66 1013.1
20260904010031 84 171 1.7 4.3 0.00 0.00 0.00 65 1013.1
20260904005950 84 171 2.6 4.3 0.00 0.00 0.00 65 1013.1
20260904005827 84 172 3.5 4.3 0.00 0.00 0.00 65 1013.1
20260904005729 84 181 1.7 4.3 0.00 0.00 0.00 65 1013.0
20260904005628 84 181 2.6 4.3 0.00 0.00 0.00 65 1013.0
20260904005547 84 182 3.5 4.3 0.00 0.00 0.00 65 1013.0
20260904005424 84 185 2.6 4.3 0.00 0.00 0.00 65 1013.0
20260904005342 84 185 2.6 2.6 0.00 0.00 0.00 64 1013.0
20260904005240 84 185 1.7 2.6 0.00 0.00 0.00 64 1013.0
20260904005138 84 185 1.7 2.6 0.00 0.00 0.00 64 1013.0
20260904005036 84 185 1.7 2.6 0.00 0.00 0.00 64 1013.0
20260904004940 84 185 1.7 2.6 0.00 0.00 0.00 64 1013.0
20260904004838 84 185 1.7 2.6 0.00 0.00 0.00 64 1013.0
20260904004734 84 185 1.7 2.6 0.00 0.00 0.00 64 1013.0
20260904004704 84 181 1.7 2.6 0.00 0.00 0.00 64 1013.0
20260904004542 84 184 1.7 4.3 0.00 0.00 0.00 64 1013.0
20260904004440 84 184 1.7 4.3 0.00 0.00 0.00 63 1013.0
20260904004337 84 185 1.7 4.3 0.00 0.00 0.00 63 1013.0
20260904004240 84 184 0.9 7.0 0.00 0.00 0.00 63 1013.0
20260904004139 84 185 0.9 7.0 0.00 0.00 0.00 63 1013.0
20260904004035 84 182 0.9 7.0 0.00 0.00 0.00 63 1013.0
20260904003933 84 185 0.9 7.0 0.00 0.00 0.00 62 1013.0
20260904003832 84 185 0.9 7.0 0.00 0.00 0.00 62 1013.0
20260904003731 84 185 1.7 7.0 0.00 0.00 0.00 62 1013.0
20260904003629 84 198 1.7 7.0 0.00 0.00 0.00 62 1013.0
20260904003532 84 200 1.7 7.0 0.00 0.00 0.00 62 1013.0
20260904003430 84 199 2.6 7.0 0.00 0.00 0.00 62 1013.0
20260904003327 84 203 3.5 7.0 0.00 0.00 0.00 62 1013.0
20260904003236 84 181 3.5 5.2 0.00 0.00 0.00 62 1013.0
20260904003146 84 152 2.6 5.2 0.00 0.00 0.00 62 1013.0
20260904003042 84 71 2.6 4.3 0.00 0.00 0.00 62 1013.0
20260904002940 84 71 2.6 4.3 0.00 0.00 0.00 62 1013.0
20260904002838 84 71 2.6 4.3 0.00 0.00 0.00 62 1013.0
20260904002756 84 66 2.6 4.3 0.00 0.00 0.00 62 1012.7
20260904002634 85 69 1.7 4.3 0.00 0.00 0.00 62 1012.7
20260904002538 85 69 1.7 4.3 0.00 0.00 0.00 62 1012.7
20260904002437 85 69 1.7 4.3 0.00 0.00 0.00 62 1012.7
20260904002334 85 68 1.7 4.3 0.00 0.00 0.00 62 1012.7
20260904002233 85 68 1.7 4.3 0.00 0.00 0.00 62 1012.7
20260904002133 85 69 1.7 4.3 0.00 0.00 0.00 62 1012.7
20260904002031 85 68 1.7 4.3 0.00 0.00 0.00 62 1012.7
20260904001933 85 65 2.6 4.3 0.00 0.00 0.00 62 1012.7
20260904001833 85 56 2.6 3.5 0.00 0.00 0.00 62 1012.7
20260904001732 85 52 2.6 3.5 0.00 0.00 0.00 61 1012.7
20260904001701 85 44 1.7 2.6 0.00 0.00 0.00 62 1012.7
20260904001538 85 40 1.7 2.6 0.00 0.00 0.00 61 1012.7
20260904001438 85 44 0.9 2.6 0.00 0.00 0.00 61 1012.7
20260904001356 85 42 1.7 2.6 0.00 0.00 0.00 61 1012.7
20260904001235 85 42 1.7 2.6 0.00 0.00 0.00 61 1012.8
20260904001156 85 42 1.7 2.6 0.00 0.00 0.00 61 1012.8
20260904001038 85 42 1.7 2.6 0.00 0.00 0.00 61 1012.8
20260904000936 85 42 0.0 0.0 0.00 0.00 0.00 61 1012.8
20260904000835 85 42 0.0 0.9 0.00 0.00 0.00 61 1012.8
20260904000733 85 40 0.0 1.7 0.00 0.00 0.00 61 1012.8
20260904000632 85 42 0.0 1.7 0.00 0.00 0.00 60 1012.8
20260904000530 85 42 0.0 1.7 0.00 0.00 0.00 61 1012.8
20260904000433 85 40 0.0 1.7 0.00 0.00 0.00 60 1012.8
20260904000333 85 42 0.0 1.7 0.00 0.00 0.00 60 1012.8
20260904000303 85 42 0.0 1.7 0.00 0.00 0.00 59 1012.8
20260904000151 85 42 0.0 1.7 0.00 0.00 0.00 59 1012.8
20260904000028 85 44 0.0 1.7 0.00 0.00 0.00 59 1012.8
20260903235924 85 44 1.7 1.7 0.00 0.00 0.00 60 1012.8
20260903235843 85 42 0.9 1.7 0.00 0.00 0.00 61 1012.8
20260903235742 85 42 0.9 2.6 0.00 0.00 0.00 62 1012.7
20260903235700 86 42 0.0 2.6 0.00 0.00 0.00 62 1012.7
20260903235604 86 42 0.0 2.6 0.00 0.00 0.00 61 1012.7
20260903235440 86 42 0.0 2.6 0.00 0.00 0.00 62 1012.7
20260903235339 86 42 0.0 2.6 0.00 0.00 0.00 61 1012.7
20260903235238 86 42 0.0 2.6 0.00 0.00 0.00 61 1012.7
20260903235156 86 44 0.9 2.6 0.00 0.00 0.00 61 1012.7
20260903235033 86 42 0.9 2.6 0.00 0.00 0.00 62 1012.7
20260903234952 86 42 0.9 2.6 0.00 0.00 0.00 62 1012.7
20260903234829 86 44 0.9 2.6 0.00 0.00 0.00 62 1012.7
20260903234744 86 42 1.7 2.6 0.00 0.00 0.00 62 1012.7
20260903234653 86 41 1.7 2.6 0.00 0.00 0.00 62 1012.7
20260903234531 86 40 1.7 2.6 0.00 0.00 0.00 62 1012.7
20260903234449 86 42 0.9 2.6 0.00 0.00 0.00 62 1012.7
20260903234326 86 41 0.9 1.7 0.00 0.00 0.00 61 1012.7
20260903234245 86 41 0.9 1.7 0.00 0.00 0.00 60 1012.7
20260903234203 86 41 0.9 1.7 0.00 0.00 0.00 60 1012.7
20260903234101 86 41 0.0 1.7 0.00 0.00 0.00 60 1012.7
20260903233940 86 41 0.0 0.0 0.00 0.00 0.00 60 1012.7
20260903233824 86 41 0.0 0.0 0.00 0.00 0.00 60 1012.7
20260903233742 86 41 0.0 0.0 0.00 0.00 0.00 60 1012.7
20260903233640 86 41 0.0 0.0 0.00 0.00 0.00 60 1012.7
20260903233558 86 41 0.0 0.0 0.00 0.00 0.00 60 1012.7
20260903233435 86 41 0.0 0.0 0.00 0.00 0.00 60 1012.7
20260903233354 86 40 0.0 0.0 0.00 0.00 0.00 60 1012.7
20260903233230 86 41 0.0 0.0 0.00 0.00 0.00 60 1012.7
20260903233159 86 41 0.0 0.0 0.00 0.00 0.00 60 1012.7
20260903233040 86 41 0.0 0.0 0.00 0.00 0.00 60 1012.7
20260903232939 86 38 0.0 0.0 0.00 0.00 0.00 60 1012.7
20260903232839 86 41 0.0 0.0 0.00 0.00 0.00 59 1012.7
20260903232757 86 41 0.0 0.0 0.00 0.00 0.00 59 1012.6
20260903232634 87 37 0.0 0.0 0.00 0.00 0.00 59 1012.6
20260903232533 87 41 0.0 0.0 0.00 0.00 0.00 59 1012.6
20260903232432 87 41 0.0 0.0 0.00 0.00 0.00 59 1012.6
20260903232330 87 41 0.0 0.0 0.00 0.00 0.00 59 1012.6
20260903232232 87 41 0.0 0.0 0.00 0.00 0.00 59 1012.6
20260903232130 87 41 0.0 0.0 0.00 0.00 0.00 59 1012.6
20260903232029 87 41 0.0 0.0 0.00 0.00 0.00 59 1012.6
20260903231928 87 41 0.0 0.0 0.00 0.00 0.00 59 1012.6
20260903231829 87 40 0.0 0.0 0.00 0.00 0.00 59 1012.6
20260903231759 87 40 0.0 0.0 0.00 0.00 0.00 59 1012.6
20260903231647 87 41 0.0 0.0 0.00 0.00 0.00 59 1012.6
20260903231529 87 34 0.0 0.0 0.00 0.00 0.00 59 1012.6
20260903231427 87 41 0.0 0.0 0.00 0.00 0.00 59 1012.6
20260903231325 87 42 0.0 0.0 0.00 0.00 0.00 59 1012.6
20260903231243 87 41 0.0 0.0 0.00 0.00 0.00 59 1012.7
20260903231142 87 37 0.0 0.0 0.00 0.00 0.00 59 1012.7
20260903231040 87 41 0.0 0.9 0.00 0.00 0.00 59 1012.7
20260903230938 87 41 0.0 1.7 0.00 0.00 0.00 58 1012.7
20260903230840 87 41 0.0 1.7 0.00 0.00 0.00 58 1012.7
20260903230739 87 38 0.0 1.7 0.00 0.00 0.00 58 1012.7
20260903230636 87 40 0.0 2.6 0.00 0.00 0.00 58 1012.7
20260903230533 87 42 0.0 2.6 0.00 0.00 0.00 58 1012.7
20260903230431 87 41 0.0 2.6 0.00 0.00 0.00 59 1012.7
20260903230329 87 41 0.0 2.6 0.00 0.00 0.00 59 1012.7
20260903230238 87 40 0.0 2.6 0.00 0.00 0.00 59 1012.7
20260903230150 87 38 0.9 2.6 0.00 0.00 0.00 58 1012.7
20260903230031 87 40 0.0 2.6 0.00 0.00 0.00 58 1012.7
20260903225949 87 41 0.0 2.6 0.00 0.00 0.00 58 1012.7
20260903225847 87 37 0.9 2.6 0.00 0.00 0.00 58 1012.7
20260903225746 87 40 1.7 2.6 0.00 0.00 0.00 58 1012.6
20260903225704 87 38 1.7 2.6 0.00 0.00 0.00 58 1012.6
20260903225543 87 40 0.9 1.7 0.00 0.00 0.00 58 1012.6
20260903225441 87 41 0.9 1.7 0.00 0.00 0.00 57 1012.6
20260903225340 87 41 0.9 1.7 0.00 0.00 0.00 57 1012.6
20260903225243 87 41 0.9 1.7 0.00 0.00 0.00 57 1012.6
20260903225142 87 41 0.0 2.6 0.00 0.00 0.00 57 1012.6
20260903225041 87 41 0.0 2.6 0.00 0.00 0.00 56 1012.6
20260903224959 87 40 0.0 4.3 0.00 0.00 0.00 56 1012.6
20260903224857 87 41 0.0 4.3 0.00 0.00 0.00 56 1012.6
20260903224754 87 41 0.0 4.3 0.00 0.00 0.00 56 1012.6
20260903224703 87 40 0.0 4.3 0.00 0.00 0.00 56 1012.6
20260903224539 87 41 0.9 4.3 0.00 0.00 0.00 56 1012.6
20260903224438 87 41 0.9 4.3 0.00 0.00 0.00 56 1012.6
20260903224401 87 41 0.9 4.3 0.00 0.00 0.00 56 1012.6
20260903224238 87 41 1.7 4.3 0.00 0.00 0.00 56 1012.4
20260903224136 87 40 2.6 4.3 0.00 0.00 0.00 56 1012.4
20260903224036 87 41 2.6 4.3 0.00 0.00 0.00 56 1012.4
20260903223936 87 38 0.9 2.6 0.00 0.00 0.00 56 1012.4
20260903223835 87 41 0.9 2.6 0.00 0.00 0.00 56 1012.4
20260903223733 87 37 0.0 2.6 0.00 0.00 0.00 56 1012.4
20260903223635 87 41 1.7 2.6 0.00 0.00 0.00 56 1012.4
20260903223534 87 41 0.0 2.6 0.00 0.00 0.00 56 1012.4
20260903223432 87 41 0.9 2.6 0.00 0.00 0.00 56 1012.4
20260903223330 87 38 0.0 2.6 0.00 0.00 0.00 56 1012.4
20260903223251 87 40 0.9 2.6 0.00 0.00 0.00 56 1012.4
20260903223223 87 41 0.9 2.6 0.00 0.00 0.00 56 1012.4
20260903223037 87 41 1.7 3.5 0.00 0.00 0.00 56 1012.4
20260903222937 87 40 1.7 4.3 0.00 0.00 0.00 56 1012.4
20260903222901 87 40 1.7 4.3 0.00 0.00 0.00 56 1012.4
20260903222739 87 40 2.6 4.3 0.00 0.00 0.00 55 1012.4
20260903222657 87 40 1.7 4.3 0.00 0.00 0.00 55 1012.4
20260903222555 87 40 0.9 4.3 0.00 0.00 0.00 55 1012.4
20260903222433 87 40 0.0 4.3 0.00 0.00 0.00 55 1012.4
20260903222331 87 40 0.9 4.3 0.00 0.00 0.00 55 1012.4
20260903222229 87 40 1.7 4.3 0.00 0.00 0.00 55 1012.4
20260903222149 87 40 2.6 4.3 0.00 0.00 0.00 56 1012.4
20260903222031 87 35 1.7 4.3 0.00 0.00 0.00 56 1012.4
20260903221929 87 40 1.7 4.3 0.00 0.00 0.00 56 1012.4
20260903221828 87 40 0.0 4.3 0.00 0.00 0.00 56 1012.4
20260903221738 87 40 2.6 4.3 0.00 0.00 0.00 56 1012.4
20260903221646 87 40 3.5 4.3 0.00 0.00 0.00 56 1012.4
20260903221524 87 35 1.7 4.3 0.00 0.00 0.00 55 1012.4
20260903221441 87 37 0.9 4.3 0.00 0.00 0.00 55 1012.4
20260903221324 87 35 2.6 4.3 0.00 0.00 0.00 55 1012.4
20260903221243 87 32 2.6 4.3 0.00 0.00 0.00 55 1012.4
20260903221142 87 35 0.9 1.7 0.00 0.00 0.00 55 1012.4
20260903221041 87 35 0.0 0.9 0.00 0.00 0.00 55 1012.4
20260903220939 87 35 0.0 0.9 0.00 0.00 0.00 54 1012.4
20260903220837 87 35 0.0 0.9 0.00 0.00 0.00 55 1012.4
20260903220757 87 35 0.0 0.9 0.00 0.00 0.00 55 1012.4
20260903220633 87 35 0.0 0.9 0.00 0.00 0.00 55 1012.4
20260903220536 87 35 0.0 0.9 0.00 0.00 0.00 54 1012.4
20260903220435 87 35 0.0 1.7 0.00 0.00 0.00 54 1012.4
20260903220336 87 32 0.0 1.7 0.00 0.00 0.00 54 1012.4
20260903220244 87 34 0.0 1.7 0.00 0.00 0.00 54 1012.4
20260903220153 87 34 0.0 1.7 0.00 0.00 0.00 55 1012.4
20260903220029 87 35 0.0 1.7 0.00 0.00 0.00 55 1012.4
20260903215948 87 35 0.0 2.6 0.00 0.00 0.00 55 1012.4
20260903215829 87 34 0.0 2.6 0.00 0.00 0.00 54 1012.4
20260903215727 87 35 0.0 2.6 0.00 0.00 0.00 54 1012.4
20260903215626 87 35 1.7 2.6 0.00 0.00 0.00 54 1012.4
20260903215524 87 34 0.9 2.6 0.00 0.00 0.00 53 1012.4
20260903215441 87 35 0.9 2.6 0.00 0.00 0.00 53 1012.4
20260903215340 87 35 0.9 2.6 0.00 0.00 0.00 52 1012.4
20260903215239 87 34 1.7 2.6 0.00 0.00 0.00 52 1012.4
20260903215142 87 35 1.7 4.3 0.00 0.00 0.00 53 1012.4
20260903215039 87 35 1.7 4.3 0.00 0.00 0.00 54 1012.4
20260903214937 87 34 1.7 4.3 0.00 0.00 0.00 55 1012.4
20260903214835 87 34 1.7 4.3 0.00 0.00 0.00 55 1012.4
20260903214733 87 35 1.7 4.3 0.00 0.00 0.00 55 1012.4
20260903214701 87 35 1.7 5.2 0.00 0.00 0.00 55 1012.4
20260903214539 87 35 1.7 5.2 0.00 0.00 0.00 53 1012.4
20260903214458 87 37 1.7 5.2 0.00 0.00 0.00 52 1012.4
20260903214338 87 34 2.6 5.2 0.00 0.00 0.00 52 1012.4
20260903214237 87 35 3.5 5.2 0.00 0.00 0.00 53 1012.6
20260903214134 87 34 3.5 5.2 0.00 0.00 0.00 53 1012.6
20260903214033 87 37 2.6 5.2 0.00 0.00 0.00 53 1012.6
20260903213931 87 32 2.6 5.2 0.00 0.00 0.00 55 1012.6
20260903213830 87 37 3.5 5.2 0.00 0.00 0.00 55 1012.6
20260903213727 87 37 1.7 5.2 0.00 0.00 0.00 54 1012.6
20260903213631 87 35 1.7 5.2 0.00 0.00 0.00 53 1012.6
20260903213530 87 38 1.7 5.2 0.00 0.00 0.00 53 1012.6
20260903213447 87 37 2.6 5.2 0.00 0.00 0.00 55 1012.6
20260903213325 87 37 2.6 6.1 0.00 0.00 0.00 55 1012.6
20260903213244 87 38 2.6 6.1 0.00 0.00 0.00 55 1012.6
20260903213154 87 37 3.5 6.1 0.00 0.00 0.00 54 1012.6
20260903213030 87 35 2.6 6.1 0.00 0.00 0.00 55 1012.6
20260903212928 87 38 2.6 6.1 0.00 0.00 0.00 55 1012.6
20260903212850 87 38 1.7 6.1 0.00 0.00 0.00 56 1012.6
20260903212728 87 37 3.5 6.1 0.00 0.00 0.00 56 1012.6
20260903212647 87 38 4.3 6.1 0.00 0.00 0.00 55 1012.6
20260903212544 87 37 4.3 6.1 0.00 0.00 0.00 58 1012.6
20260903212502 87 37 5.2 6.1 0.00 0.00 0.00 57 1012.6
20260903212339 87 38 4.3 6.1 0.00 0.00 0.00 57 1012.6
20260903212238 87 34 3.5 6.1 0.00 0.00 0.00 57 1012.6
20260903212134 87 35 2.6 6.1 0.00 0.00 0.00 56 1012.6
20260903212037 87 35 3.5 6.1 0.00 0.00 0.00 56 1012.6
20260903211935 87 37 5.2 6.1 0.00 0.00 0.00 56 1012.6
20260903211833 87 34 4.3 6.1 0.00 0.00 0.00 57 1012.6
20260903211732 87 32 4.3 6.1 0.00 0.00 0.00 57 1012.6
20260903211702 87 30 4.3 7.0 0.00 0.00 0.00 56 1012.6
20260903211542 87 34 4.3 7.0 0.00 0.00 0.00 56 1012.6
20260903211438 87 30 4.3 7.0 0.00 0.00 0.00 56 1012.6
20260903211337 87 31 4.3 7.0 0.00 0.00 0.00 56 1012.6
20260903211240 87 31 3.5 7.0 0.00 0.00 0.00 56 1013.7
20260903211142 87 31 3.5 7.0 0.00 0.00 0.00 56 1013.7
20260903211041 87 31 3.5 8.7 0.00 0.00 0.00 55 1013.7
20260903210938 87 31 4.3 8.7 0.00 0.00 0.00 55 1013.7
20260903210836 87 28 5.2 10.4 0.00 0.00 0.00 54 1013.7
20260903210735 88 28 6.1 10.4 0.00 0.00 0.00 54 1013.7
20260903210636 88 25 5.2 10.4 0.00 0.00 0.00 54 1013.7
20260903210540 88 32 3.5 10.4 0.00 0.00 0.00 55 1013.7
20260903210458 88 32 4.3 10.4 0.00 0.00 0.00 55 1013.7
20260903210336 88 34 6.1 10.4 0.00 0.00 0.00 56 1013.7
20260903210253 88 34 7.0 10.4 0.00 0.00 0.00 54 1013.7
20260903210203 88 47 7.8 10.4 0.00 0.00 0.00 54 1013.7
20260903210040 88 25 7.8 10.4 0.00 0.00 0.00 54 1013.7
20260903205938 89 21 6.1 10.4 0.00 0.00 0.00 55 1013.7
20260903205836 89 42 6.1 10.4 0.00 0.00 0.00 54 1013.7
20260903205739 89 10 7.0 10.4 0.00 0.00 0.00 53 1013.7
20260903205637 89 24 8.7 10.4 0.00 0.00 0.00 53 1013.7
20260903205536 89 27 7.8 10.4 0.00 0.00 0.00 53 1013.7
20260903205435 89 42 7.0 10.4 0.00 0.00 0.00 53 1013.7
20260903205331 90 32 7.0 10.4 0.00 0.00 0.00 52 1013.7
20260903205230 90 48 6.1 10.4 0.00 0.00 0.00 51 1013.7
20260903205128 90 21 7.0 10.4 0.00 0.00 0.00 50 1013.7
20260903205034 90 8 7.8 10.4 0.00 0.00 0.00 50 1013.7
20260903204933 90 51 7.0 10.4 0.00 0.00 0.00 49 1013.7
20260903204830 90 35 7.8 10.4 0.00 0.00 0.00 49 1013.7
20260903204750 90 37 7.8 10.4 0.00 0.00 0.00 49 1013.7
20260903204659 90 32 7.0 10.4 0.00 0.00 0.00 48 1013.7
20260903204536 90 31 5.2 8.7 0.00 0.00 0.00 48 1013.7
20260903204455 90 3 5.2 8.7 0.00 0.00 0.00 47 1013.7
20260903204332 90 38 5.2 7.0 0.00 0.00 0.00 48 1013.7
20260903204234 90 49 6.1 7.0 0.00 0.00 0.00 50 1013.8
20260903204133 90 56 5.2 7.0 0.00 0.00 0.00 50 1013.8
20260903204030 90 343 4.3 6.1 0.00 0.00 0.00 48 1013.8
20260903203947 90 23 4.3 6.1 0.00 0.00 0.00 47 1013.8
20260903203825 90 359 2.6 5.2 0.00 0.00 0.00 51 1013.8
20260903203742 90 261 0.9 2.6 0.00 0.00 0.00 50 1013.8
20260903203640 90 243 0.0 2.6 0.00 0.00 0.00 51 1013.8
20260903203559 90 246 0.0 3.5 0.00 0.00 0.00 52 1013.8
20260903203436 90 244 0.9 4.3 0.00 0.00 0.00 53 1013.8
20260903203339 90 243 1.7 5.2 0.00 0.00 0.00 52 1013.8
20260903203237 90 247 0.0 5.2 0.00 0.00 0.00 52 1013.8
20260903203206 90 246 0.0 5.2 0.00 0.00 0.00 50 1013.8
20260903203041 90 246 0.0 5.2 0.00 0.00 0.00 50 1013.8
20260903202939 90 244 0.0 5.2 0.00 0.00 0.00 49 1013.8
20260903202838 90 246 0.0 5.2 0.00 0.00 0.00 48 1013.8
20260903202757 90 246 0.9 5.2 0.00 0.00 0.00 50 1014.0
20260903202633 90 246 3.5 5.2 0.00 0.00 0.00 51 1014.0
20260903202555 90 246 1.7 5.2 0.00 0.00 0.00 52 1014.0
20260903202433 90 247 0.9 5.2 0.00 0.00 0.00 51 1014.0
20260903202334 90 247 1.7 7.0 0.00 0.00 0.00 52 1014.0
20260903202231 90 240 0.9 7.0 0.00 0.00 0.00 51 1014.0
20260903202130 90 243 0.0 7.0 0.00 0.00 0.00 50 1014.0
20260903202029 90 243 0.0 7.0 0.00 0.00 0.00 51 1014.0
20260903201949 90 240 1.7 7.0 0.00 0.00 0.00 51 1014.0
20260903201830 90 243 1.7 7.0 0.00 0.00 0.00 51 1014.0
20260903201758 90 209 0.9 7.0 0.00 0.00 0.00 51 1014.0
20260903201645 90 206 2.6 7.0 0.00 0.00 0.00 51 1014.0
20260903201542 90 226 3.5 7.0 0.00 0.00 0.00 50 1014.0
20260903201442 90 215 4.3 7.0 0.00 0.00 0.00 50 1014.0
20260903201342 90 184 0.9 7.0 0.00 0.00 0.00 50 1014.0
20260903201240 90 182 1.7 7.0 0.00 0.00 0.00 50 1014.2
20260903201139 90 176 1.7 7.0 0.00 0.00 0.00 51 1014.2
20260903201042 90 236 2.6 7.0 0.00 0.00 0.00 51 1014.2
20260903201000 90 237 4.3 7.0 0.00 0.00 0.00 51 1014.2
20260903200838 90 175 2.6 4.3 0.00 0.00 0.00 50 1014.2
20260903200735 90 171 1.7 6.1 0.00 0.00 0.00 51 1014.2
20260903200634 90 172 0.9 7.0 0.00 0.00 0.00 50 1014.2
20260903200532 90 172 1.7 7.0 0.00 0.00 0.00 50 1014.2
20260903200429 90 174 0.9 7.0 0.00 0.00 0.00 50 1014.2
20260903200327 90 172 1.7 7.0 0.00 0.00 0.00 50 1014.2
20260903200241 90 172 2.6 7.0 0.00 0.00 0.00 49 1014.2
20260903200152 90 128 1.7 7.0 0.00 0.00 0.00 49 1014.2
20260903200050 90 126 2.6 7.0 0.00 0.00 0.00 52 1014.2
20260903195926 90 127 5.2 7.0 0.00 0.00 0.00 51 1014.2
20260903195845 90 134 3.5 7.0 0.00 0.00 0.00 50 1014.2
20260903195742 90 138 5.2 7.0 0.00 0.00 0.00 51 1014.3
20260903195642 90 127 2.6 4.3 0.00 0.00 0.00 50 1014.3
20260903195541 90 130 1.7 4.3 0.00 0.00 0.00 50 1014.3
20260903195443 90 128 0.9 2.6 0.00 0.00 0.00 50 1014.3
20260903195402 89 130 0.9 2.6 0.00 0.00 0.00 49 1014.3
20260903195238 89 128 1.7 2.6 0.00 0.00 0.00 49 1014.3
20260903195137 89 124 1.7 4.3 0.00 0.00 0.00 52 1014.3
20260903195035 90 127 0.9 4.3 0.00 0.00 0.00 52 1014.3
20260903194954 90 121 0.0 4.3 0.00 0.00 0.00 50 1014.3
20260903194832 90 120 0.0 4.3 0.00 0.00 0.00 50 1014.3
20260903194729 90 121 0.0 4.3 0.00 0.00 0.00 51 1014.3
20260903194703 90 121 0.0 4.3 0.00 0.00 0.00 49 1014.3
20260903194540 90 120 0.0 4.3 0.00 0.00 0.00 50 1014.3
20260903194439 90 119 0.9 4.3 0.00 0.00 0.00 51 1014.3
20260903194338 90 121 2.6 4.3 0.00 0.00 0.00 53 1014.3
20260903194236 90 119 1.7 2.6 0.00 0.00 0.00 53 1014.3
20260903194154 90 116 0.9 2.6 0.00 0.00 0.00 53 1014.3
20260903194032 90 113 0.0 2.6 0.00 0.00 0.00 53 1014.3
20260903193935 90 114 0.0 2.6 0.00 0.00 0.00 53 1014.3
20260903193833 90 113 0.0 2.6 0.00 0.00 0.00 53 1014.3
20260903193732 90 113 0.0 2.6 0.00 0.00 0.00 52 1014.3
20260903193630 90 113 1.7 4.3 0.00 0.00 0.00 52 1014.3
20260903193527 90 114 0.9 4.3 0.00 0.00 0.00 52 1014.3
20260903193424 90 112 0.0 4.3 0.00 0.00 0.00 52 1014.3
20260903193344 90 113 0.0 4.3 0.00 0.00 0.00 53 1014.3
20260903193258 90 114 1.7 4.3 0.00 0.00 0.00 53 1014.3
20260903193147 90 114 1.7 4.3 0.00 0.00 0.00 53 1014.3
20260903193048 90 112 0.0 4.3 0.00 0.00 0.00 52 1014.3
20260903193007 90 110 0.9 4.3 0.00 0.00 0.00 50 1014.3
20260903192905 90 113 2.6 4.3 0.00 0.00 0.00 53 1014.3
20260903192742 90 110 2.6 4.3 0.00 0.00 0.00 51 1014.6
20260903192640 90 116 2.6 4.3 0.00 0.00 0.00 52 1014.6
20260903192538 90 113 3.5 4.3 0.00 0.00 0.00 53 1014.6
20260903192436 90 136 1.7 5.2 0.00 0.00 0.00 51 1014.6
20260903192339 90 110 1.7 5.2 0.00 0.00 0.00 50 1014.6
20260903192238 90 109 0.9 5.2 0.00 0.00 0.00 50 1014.6
20260903192136 90 106 0.0 5.2 0.00 0.00 0.00 54 1014.6
20260903192057 90 103 0.9 5.2 0.00 0.00 0.00 51 1014.6
20260903191934 90 109 1.7 5.2 0.00 0.00 0.00 52 1014.6
20260903191853 90 110 0.9 5.2 0.00 0.00 0.00 50 1014.6
20260903191731 90 109 0.0 5.2 0.00 0.00 0.00 50 1014.6
20260903191700 90 109 1.7 5.2 0.00 0.00 0.00 50 1014.6
20260903191603 90 107 1.7 5.2 0.00 0.00 0.00 50 1014.6
20260903191439 90 34 0.9 2.6 0.00 0.00 0.00 49 1014.6
20260903191339 90 35 0.9 2.6 0.00 0.00 0.00 48 1014.6
20260903191258 90 35 0.9 2.6 0.00 0.00 0.00 48 1014.7
20260903191136 90 35 0.9 2.6 0.00 0.00 0.00 47 1014.7
20260903191035 90 35 0.9 2.6 0.00 0.00 0.00 47 1014.7
20260903190932 90 32 1.7 2.6 0.00 0.00 0.00 48 1014.7
20260903190835 90 35 0.9 2.6 0.00 0.00 0.00 48 1014.7
20260903190733 90 34 0.0 2.6 0.00 0.00 0.00 48 1014.7
20260903190632 90 35 0.0 2.6 0.00 0.00 0.00 48 1014.7
20260903190530 90 35 0.0 3.5 0.00 0.00 0.00 49 1014.7
20260903190448 90 35 0.9 3.5 0.00 0.00 0.00 51 1014.7
20260903190326 90 35 0.9 4.3 0.00 0.00 0.00 50 1014.7
20260903190224 90 37 1.7 6.1 0.00 0.00 0.00 50 1014.7
20260903190155 90 35 1.7 6.1 0.00 0.00 0.00 50 1014.7
20260903190035 90 37 1.7 6.1 0.00 0.00 0.00 50 1014.7
20260903185933 90 34 1.7 6.1 0.00 0.00 0.00 50 1014.7
20260903185834 90 37 1.7 6.1 0.00 0.00 0.00 50 1014.7
20260903185733 90 37 2.6 6.1 0.00 0.00 0.00 50 1014.8
20260903185632 90 40 0.9 6.1 0.00 0.00 0.00 50 1014.8
20260903185531 90 40 2.6 6.1 0.00 0.00 0.00 49 1014.8
20260903185435 90 41 4.3 6.1 0.00 0.00 0.00 49 1014.8
20260903185355 90 44 5.2 6.1 0.00 0.00 0.00 50 1014.8
20260903185232 90 25 5.2 6.1 0.00 0.00 0.00 50 1014.8
20260903185131 90 47 2.6 6.1 0.00 0.00 0.00 52 1014.8
20260903185030 90 49 3.5 6.1 0.00 0.00 0.00 51 1014.8
20260903184929 90 49 4.3 6.1 0.00 0.00 0.00 50 1014.8
20260903184826 90 48 2.6 6.1 0.00 0.00 0.00 50 1014.8
20260903184724 90 48 2.6 6.1 0.00 0.00 0.00 51 1014.8
20260903184655 90 205 0.0 2.6 0.00 0.00 0.00 51 1014.8
20260903184532 90 199 0.0 2.6 0.00 0.00 0.00 50 1014.8
20260903184451 90 198 0.9 5.2 0.00 0.00 0.00 49 1014.8
20260903184327 90 192 0.9 5.2 0.00 0.00 0.00 51 1014.8
20260903184227 90 195 0.0 5.2 0.00 0.00 0.00 49 1014.8
20260903184126 90 196 0.0 5.2 0.00 0.00 0.00 49 1014.8
20260903184025 90 196 0.9 5.2 0.00 0.00 0.00 50 1014.8
20260903183924 90 192 0.0 5.2 0.00 0.00 0.00 50 1014.8
20260903183827 90 192 0.9 5.2 0.00 0.00 0.00 50 1014.8
20260903183725 90 192 0.9 5.2 0.00 0.00 0.00 52 1014.8
20260903183642 90 192 2.6 5.2 0.00 0.00 0.00 51 1014.8
20260903183540 90 191 3.5 5.2 0.00 0.00 0.00 51 1014.8
20260903183439 90 138 1.7 3.5 0.00 0.00 0.00 51 1014.8
20260903183336 90 1 1.7 2.6 0.00 0.00 0.00 50 1014.8
20260903183253 90 344 0.9 2.6 0.00 0.00 0.00 49 1014.8
20260903183203 89 346 0.0 2.6 0.00 0.00 0.00 49 1014.8
20260903183024 89 346 0.9 2.6 0.00 0.00 0.00 50 1014.8
20260903182942 89 344 0.9 2.6 0.00 0.00 0.00 50 1014.8
20260903182900 89 344 0.9 2.6 0.00 0.00 0.00 51 1014.8
20260903182757 89 346 0.9 2.6 0.00 0.00 0.00 51 1015.2
20260903182634 89 344 0.0 2.6 0.00 0.00 0.00 51 1015.2
20260903182533 89 344 0.0 2.6 0.00 0.00 0.00 50 1015.2
20260903182431 89 344 1.7 4.3 0.00 0.00 0.00 51 1015.2
20260903182329 89 360 0.0 4.3 0.00 0.00 0.00 51 1015.2
20260903182231 89 360 0.0 4.3 0.00 0.00 0.00 51 1015.2
20260903182130 89 360 0.0 4.3 0.00 0.00 0.00 52 1015.2
20260903182031 89 360 0.0 4.3 0.00 0.00 0.00 52 1015.2
20260903181930 89 360 0.9 4.3 0.00 0.00 0.00 52 1015.2
20260903181828 89 1 1.7 4.3 0.00 0.00 0.00 51 1015.2
20260903181758 89 1 1.7 4.3 0.00 0.00 0.00 51 1015.2
20260903181645 89 1 2.6 4.3 0.00 0.00 0.00 51 1015.2
20260903181543 89 326 1.7 2.6 0.00 0.00 0.00 52 1015.2
20260903181446 89 326 0.0 1.7 0.00 0.00 0.00 53 1015.2
20260903181342 89 326 0.0 1.7 0.00 0.00 0.00 53 1015.2
20260903181240 89 323 0.0 1.7 0.00 0.00 0.00 51 1015.4
20260903181139 89 326 0.0 1.7 0.00 0.00 0.00 52 1015.4
20260903181036 89 323 0.0 1.7 0.00 0.00 0.00 50 1015.4
20260903180934 89 325 0.0 2.6 0.00 0.00 0.00 53 1015.4
20260903180833 89 323 0.0 2.6 0.00 0.00 0.00 54 1015.4
20260903180736 89 325 0.0 2.6 0.00 0.00 0.00 55 1015.4
20260903180635 89 325 0.9 3.5 0.00 0.00 0.00 53 1015.4
20260903180532 89 326 1.7 4.3 0.00 0.00 0.00 53 1015.4
20260903180431 89 328 1.7 5.2 0.00 0.00 0.00 50 1015.4
20260903180331 89 326 0.9 5.2 0.00 0.00 0.00 50 1015.4
20260903180231 89 326 1.7 5.2 0.00 0.00 0.00 52 1015.4
20260903180202 89 326 1.7 5.2 0.00 0.00 0.00 53 1015.4
20260903180042 89 326 0.9 5.2 0.00 0.00 0.00 53 1015.4
20260903175940 89 325 0.9 5.2 0.00 0.00 0.00 54 1015.4
20260903175838 89 326 1.7 5.2 0.00 0.00 0.00 55 1015.4
20260903175736 89 326 2.6 5.2 0.00 0.00 0.00 56 1015.5
20260903175635 89 325 3.5 5.2 0.00 0.00 0.00 55 1015.5
20260903175533 89 360 0.0 5.2 0.00 0.00 0.00 53 1015.5
20260903175431 89 25 0.0 2.6 0.00 0.00 0.00 54 1015.5
20260903175334 89 27 0.9 3.5 0.00 0.00 0.00 53 1015.5
20260903175233 89 24 1.7 3.5 0.00 0.00 0.00 51 1015.5
20260903175132 89 27 1.7 4.3 0.00 0.00 0.00 51 1015.5
20260903175032 89 21 0.9 4.3 0.00 0.00 0.00 53 1015.5
20260903174934 89 24 0.0 5.2 0.00 0.00 0.00 51 1015.5
20260903174832 89 24 0.0 5.2 0.00 0.00 0.00 50 1015.5
20260903174731 89 27 0.9 5.2 0.00 0.00 0.00 51 1015.5
20260903174703 89 25 1.7 5.2 0.00 0.00 0.00 51 1015.5
20260903174541 89 25 2.6 5.2 0.00 0.00 0.00 50 1015.5
20260903174438 89 25 1.7 5.2 0.00 0.00 0.00 50 1015.5
20260903174337 89 25 2.6 5.2 0.00 0.00 0.00 51 1015.5
20260903174235 89 25 2.6 5.2 0.00 0.00 0.00 52 1015.6
20260903174133 89 25 1.7 5.2 0.00 0.00 0.00 54 1015.6
20260903174032 89 23 0.9 2.6 0.00 0.00 0.00 53 1015.6
20260903173933 89 23 0.9 2.6 0.00 0.00 0.00 53 1015.6
20260903173833 89 23 0.0 2.6 0.00 0.00 0.00 54 1015.6
20260903173732 89 23 0.0 3.5 0.00 0.00 0.00 54 1015.6
20260903173631 89 24 0.0 3.5 0.00 0.00 0.00 54 1015.6
20260903173530 89 23 0.9 3.5 0.00 0.00 0.00 55 1015.6
20260903173430 89 23 0.9 3.5 0.00 0.00 0.00 53 1015.6
20260903173332 89 21 0.9 3.5 0.00 0.00 0.00 54 1015.6
20260903173302 89 23 1.7 3.5 0.00 0.00 0.00 56 1015.6
20260903173152 89 23 0.9 3.5 0.00 0.00 0.00 56 1015.6
20260903173028 89 24 1.7 5.2 0.00 0.00 0.00 55 1015.6
20260903172946 89 23 2.6 5.2 0.00 0.00 0.00 55 1015.6
20260903172905 89 24 1.7 5.2 0.00 0.00 0.00 55 1015.6
20260903172803 89 27 0.9 5.2 0.00 0.00 0.00 55 1015.9
20260903172702 89 28 0.9 5.2 0.00 0.00 0.00 54 1015.9
20260903172540 89 24 0.0 5.2 0.00 0.00 0.00 53 1015.9
20260903172438 89 28 1.7 5.2 0.00 0.00 0.00 54 1015.9
20260903172340 89 28 1.7 5.2 0.00 0.00 0.00 52 1015.9
20260903172238 88 27 2.6 5.2 0.00 0.00 0.00 53 1015.9
20260903172158 88 25 1.7 5.2 0.00 0.00 0.00 52 1015.9
20260903172034 88 21 0.9 4.3 0.00 0.00 0.00 51 1015.9
20260903171933 88 21 1.7 4.3 0.00 0.00 0.00 53 1015.9
20260903171831 88 20 2.6 4.3 0.00 0.00 0.00 52 1015.9
20260903171741 88 20 2.6 4.3 0.00 0.00 0.00 53 1015.9
20260903171655 88 20 1.7 4.3 0.00 0.00 0.00 53 1015.9
20260903171553 88 18 2.6 4.3 0.00 0.00 0.00 53 1015.9
20260903171430 88 20 1.7 3.5 0.00 0.00 0.00 54 1015.9
20260903171328 88 17 0.9 3.5 0.00 0.00 0.00 54 1015.9
20260903171227 88 21 1.7 3.5 0.00 0.00 0.00 56 1016.1
20260903171124 88 21 0.9 3.5 0.00 0.00 0.00 56 1016.1
20260903171042 88 21 0.9 4.3 0.00 0.00 0.00 55 1016.1
20260903170939 88 21 0.9 4.3 0.00 0.00 0.00 54 1016.1
20260903170840 88 21 0.9 4.3 0.00 0.00 0.00 53 1016.1
20260903170739 89 21 0.9 4.3 0.00 0.00 0.00 55 1016.1
20260903170637 89 23 1.7 4.3 0.00 0.00 0.00 56 1016.1
20260903170535 89 20 2.6 4.3 0.00 0.00 0.00 56 1016.1
20260903170433 89 20 1.7 4.3 0.00 0.00 0.00 54 1016.1
20260903170332 89 20 1.7 4.3 0.00 0.00 0.00 53 1016.1
20260903170241 89 23 3.5 4.3 0.00 0.00 0.00 53 1016.1
20260903170151 89 21 2.6 4.3 0.00 0.00 0.00 53 1016.1
20260903170032 89 24 1.7 4.3 0.00 0.00 0.00 53 1016.1
20260903165953 89 24 0.0 2.6 0.00 0.00 0.00 55 1016.1
20260903165831 89 23 0.0 2.6 0.00 0.00 0.00 55 1016.1
20260903165729 89 23 1.7 2.6 0.00 0.00 0.00 54 1016.2
20260903165630 89 24 1.7 2.6 0.00 0.00 0.00 54 1016.2
20260903165548 89 24 0.9 2.6 0.00 0.00 0.00 54 1016.2
20260903165427 89 23 0.0 2.6 0.00 0.00 0.00 53 1016.2
20260903165333 89 24 0.9 2.6 0.00 0.00 0.00 53 1016.2
20260903165231 89 25 1.7 2.6 0.00 0.00 0.00 54 1016.2
20260903165130 89 23 0.0 4.3 0.00 0.00 0.00 53 1016.2
20260903165028 89 18 1.7 4.3 0.00 0.00 0.00 53 1016.2
20260903164947 89 25 1.7 4.3 0.00 0.00 0.00 53 1016.2
20260903164905 89 21 1.7 4.3 0.00 0.00 0.00 54 1016.2
20260903164801 89 24 1.7 4.3 0.00 0.00 0.00 54 1016.2
20260903164711 89 25 1.7 4.3 0.00 0.00 0.00 54 1016.2
20260903164549 88 25 1.7 4.3 0.00 0.00 0.00 55 1016.2
20260903164446 88 24 1.7 6.1 0.00 0.00 0.00 55 1016.2
20260903164348 88 25 2.6 6.1 0.00 0.00 0.00 55 1016.2
20260903164246 88 24 2.6 6.1 0.00 0.00 0.00 55 1016.3
20260903164204 88 24 2.6 6.1 0.00 0.00 0.00 55 1016.3
20260903164041 88 24 2.6 6.1 0.00 0.00 0.00 54 1016.3
20260903163939 88 20 0.9 6.1 0.00 0.00 0.00 52 1016.3
20260903163837 88 21 0.9 6.1 0.00 0.00 0.00 51 1016.3
20260903163737 88 23 0.9 6.1 0.00 0.00 0.00 52 1016.3
20260903163634 88 23 2.6 6.1 0.00 0.00 0.00 53 1016.3
20260903163536 88 21 2.6 6.1 0.00 0.00 0.00 54 1016.3
20260903163435 88 6 0.9 4.3 0.00 0.00 0.00 54 1016.3
20260903163333 88 7 0.0 4.3 0.00 0.00 0.00 55 1016.3
20260903163243 88 6 0.9 4.3 0.00 0.00 0.00 56 1016.3
20260903163153 88 6 1.7 4.3 0.00 0.00 0.00 54 1016.3
20260903163032 88 6 1.7 4.3 0.00 0.00 0.00 53 1016.3
20260903162930 88 3 2.6 4.3 0.00 0.00 0.00 55 1016.3
20260903162833 88 7 1.7 4.3 0.00 0.00 0.00 55 1016.3
20260903162732 88 7 1.7 4.3 0.00 0.00 0.00 54 1016.5
20260903162650 88 10 2.6 4.3 0.00 0.00 0.00 53 1016.5
20260903162528 88 11 3.5 4.3 0.00 0.00 0.00 53 1016.5
20260903162425 88 10 1.7 4.3 0.00 0.00 0.00 54 1016.5
20260903162343 88 8 0.9 4.3 0.00 0.00 0.00 54 1016.5
20260903162242 87 8 1.7 4.3 0.00 0.00 0.00 54 1016.5
20260903162124 87 7 2.6 4.3 0.00 0.00 0.00 53 1016.5
20260903162043 87 8 0.9 3.5 0.00 0.00 0.00 52 1016.5
20260903161942 87 10 1.7 3.5 0.00 0.00 0.00 53 1016.5
20260903161839 87 10 2.6 3.5 0.00 0.00 0.00 54 1016.5
20260903161757 87 10 2.6 3.5 0.00 0.00 0.00 54 1016.5
20260903161706 87 10 0.0 3.5 0.00 0.00 0.00 53 1016.5
20260903161542 87 10 0.0 2.6 0.00 0.00 0.00 53 1016.5
20260903161440 87 8 0.9 2.6 0.00 0.00 0.00 53 1016.5
20260903161343 87 10 1.7 2.6 0.00 0.00 0.00 54 1016.5
20260903161241 87 10 1.7 2.6 0.00 0.00 0.00 53 1016.6
20260903161159 87 10 1.7 4.3 0.00 0.00 0.00 53 1016.6
20260903161037 87 7 0.9 4.3 0.00 0.00 0.00 54 1016.6
20260903160955 87 8 0.9 4.3 0.00 0.00 0.00 57 1016.6
20260903160832 87 10 0.0 4.3 0.00 0.00 0.00 56 1016.6
20260903160731 87 8 0.0 4.3 0.00 0.00 0.00 56 1016.6
20260903160627 87 8 1.7 4.3 0.00 0.00 0.00 56 1016.6
20260903160528 87 7 1.7 4.3 0.00 0.00 0.00 58 1016.6
20260903160427 87 8 1.7 4.3 0.00 0.00 0.00 58 1016.6
20260903160326 87 10 3.5 4.3 0.00 0.00 0.00 57 1016.6
20260903160235 87 10 0.0 2.6 0.00 0.00 0.00 56 1016.6
20260903160147 87 8 0.9 2.6 0.00 0.00 0.00 56 1016.6
20260903160043 86 8 0.9 2.6 0.00 0.00 0.00 55 1016.6
20260903155940 86 8 0.9 2.6 0.00 0.00 0.00 56 1016.6
20260903155839 86 7 0.9 2.6 0.00 0.00 0.00 55 1016.6
20260903155742 86 7 0.0 2.6 0.00 0.00 0.00 55 1016.6
20260903155640 86 8 0.0 2.6 0.00 0.00 0.00 56 1016.6
20260903155558 86 8 0.9 2.6 0.00 0.00 0.00 56 1016.6
20260903155436 86 8 1.7 2.6 0.00 0.00 0.00 59 1016.6
20260903155334 86 8 1.7 2.6 0.00 0.00 0.00 58 1016.6
20260903155232 86 8 0.9 2.6 0.00 0.00 0.00 59 1016.6
20260903155130 86 8 1.7 2.6 0.00 0.00 0.00 61 1016.6
20260903155032 86 10 0.9 2.6 0.00 0.00 0.00 62 1016.6
20260903154949 86 8 1.7 2.6 0.00 0.00 0.00 62 1016.6
20260903154828 86 8 0.0 2.6 0.00 0.00 0.00 61 1016.6
20260903154727 86 8 1.7 2.6 0.00 0.00 0.00 61 1016.6
20260903154658 86 23 1.7 2.6 0.00 0.00 0.00 61 1016.6
20260903154535 86 24 1.7 2.6 0.00 0.00 0.00 62 1016.6
20260903154433 85 30 0.0 3.5 0.00 0.00 0.00 64 1016.6
20260903154336 85 27 0.0 4.3 0.00 0.00 0.00 64 1016.6
20260903154235 85 28 0.0 4.3 0.00 0.00 0.00 64 1015.7
20260903154133 85 28 0.0 4.3 0.00 0.00 0.00 64 1015.7
20260903154032 85 28 0.9 4.3 0.00 0.00 0.00 63 1015.7
20260903153953 85 30 1.7 4.3 0.00 0.00 0.00 63 1015.7
20260903153830 85 30 0.9 4.3 0.00 0.00 0.00 63 1015.7
20260903153730 85 30 1.7 4.3 0.00 0.00 0.00 64 1015.7
20260903153634 85 28 1.7 4.3 0.00 0.00 0.00 65 1015.7
20260903153530 85 30 2.6 4.3 0.00 0.00 0.00 65 1015.7
20260903153427 85 45 0.0 1.7 0.00 0.00 0.00 65 1015.7
20260903153325 85 47 0.0 1.7 0.00 0.00 0.00 63 1015.7
20260903153244 85 47 0.9 2.6 0.00 0.00 0.00 63 1015.7
20260903153216 85 47 0.9 2.6 0.00 0.00 0.00 62 1015.7
20260903153031 85 45 1.7 2.6 0.00 0.00 0.00 62 1015.7
20260903152948 85 47 1.7 2.6 0.00 0.00 0.00 66 1015.7
20260903152826 84 47 0.9 2.6 0.00 0.00 0.00 65 1015.7
20260903152727 84 47 0.0 2.6 0.00 0.00 0.00 64 1016.5
20260903152626 84 47 0.9 2.6 0.00 0.00 0.00 64 1016.5
20260903152526 84 45 0.0 2.6 0.00 0.00 0.00 65 1016.5
20260903152424 84 40 1.7 2.6 0.00 0.00 0.00 64 1016.5
20260903152343 84 47 0.9 2.6 0.00 0.00 0.00 64 1016.5
20260903152222 84 47 1.7 2.6 0.00 0.00 0.00 65 1016.5
20260903152126 84 47 1.7 2.6 0.00 0.00 0.00 66 1016.5
20260903152027 84 47 1.7 2.6 0.00 0.00 0.00 68 1016.5
20260903151926 84 47 0.0 2.6 0.00 0.00 0.00 69 1016.5
20260903151826 84 48 0.0 2.6 0.00 0.00 0.00 68 1016.5
20260903151735 84 47 0.9 2.6 0.00 0.00 0.00 68 1016.5
20260903151645 84 47 0.9 2.6 0.00 0.00 0.00 68 1016.5
20260903151542 84 47 0.9 2.6 0.00 0.00 0.00 68 1016.5
20260903151441 84 48 1.7 3.5 0.00 0.00 0.00 70 1016.5
20260903151343 84 48 1.7 3.5 0.00 0.00 0.00 71 1016.5
20260903151243 84 48 1.7 4.3 0.00 0.00 0.00 71 1016.4
20260903151201 84 49 0.9 4.3 0.00 0.00 0.00 71 1016.4
20260903151041 84 49 0.0 4.3 0.00 0.00 0.00 71 1016.4
20260903150940 84 52 0.9 4.3 0.00 0.00 0.00 70 1016.4
20260903150838 84 51 1.7 4.3 0.00 0.00 0.00 70 1016.4
20260903150739 84 52 1.7 4.3 0.00 0.00 0.00 70 1016.4
20260903150642 83 54 2.6 4.3 0.00 0.00 0.00 70 1016.4
20260903150540 83 52 2.6 4.3 0.00 0.00 0.00 71 1016.4
20260903150459 83 56 2.6 4.3 0.00 0.00 0.00 71 1016.4
20260903150337 83 56 1.7 4.3 0.00 0.00 0.00 71 1016.4
20260903150235 83 56 0.9 1.7 0.00 0.00 0.00 71 1016.4
20260903150204 83 49 0.0 1.7 0.00 0.00 0.00 71 1016.4
20260903150041 83 56 0.0 0.9 0.00 0.00 0.00 72 1016.4
20260903145939 83 54 0.0 0.9 0.00 0.00 0.00 72 1016.4
20260903145841 83 54 0.9 0.9 0.00 0.00 0.00 71 1016.4
20260903145759 83 56 0.0 0.0 0.00 0.00 0.00 71 1015.6
20260903145656 83 58 0.0 0.0 0.00 0.00 0.00 71 1015.6
20260903145534 83 56 0.0 0.0 0.00 0.00 0.00 71 1015.6
20260903145432 83 56 0.0 0.0 0.00 0.00 0.00 71 1015.6
20260903145330 83 56 0.0 0.0 0.00 0.00 0.00 71 1015.6
20260903145232 83 56 0.0 0.0 0.00 0.00 0.00 71 1015.6
20260903145136 83 55 0.0 0.0 0.00 0.00 0.00 71 1015.6
20260903145035 83 56 0.0 0.9 0.00 0.00 0.00 71 1015.6
20260903144933 83 52 0.0 0.9 0.00 0.00 0.00 71 1015.6
20260903144830 83 56 0.0 0.9 0.00 0.00 0.00 71 1015.6
20260903144728 83 56 0.0 0.9 0.00 0.00 0.00 71 1015.6
20260903144658 83 55 0.0 0.9 0.00 0.00 0.00 70 1015.6
20260903144536 82 56 0.0 0.9 0.00 0.00 0.00 70 1015.6
20260903144439 82 56 0.0 0.9 0.00 0.00 0.00 70 1015.6
20260903144357 82 54 0.0 0.9 0.00 0.00 0.00 69 1015.6
20260903144255 82 56 0.0 0.9 0.00 0.00 0.00 70 1015.6
20260903144133 82 56 0.0 0.9 0.00 0.00 0.00 69 1015.6
20260903144030 82 56 0.0 0.9 0.00 0.00 0.00 68 1015.6
20260903143930 82 54 0.9 0.9 0.00 0.00 0.00 69 1015.6
20260903143851 82 56 0.0 0.9 0.00 0.00 0.00 70 1015.6
20260903143729 82 56 0.0 0.9 0.00 0.00 0.00 69 1015.6
20260903143630 82 56 0.0 0.9 0.00 0.00 0.00 70 1015.6
20260903143529 82 56 0.0 0.9 0.00 0.00 0.00 71 1015.6
20260903143427 82 55 0.0 0.9 0.00 0.00 0.00 71 1015.6
20260903143327 82 56 0.0 0.9 0.00 0.00 0.00 71 1015.6
20260903143225 82 56 0.0 0.9 0.00 0.00 0.00 71 1015.6
20260903143155 82 56 0.0 0.0 0.00 0.00 0.00 70 1015.6
20260903143030 82 56 0.0 1.7 0.00 0.00 0.00 70 1015.6
20260903142932 82 55 0.0 1.7 0.00 0.00 0.00 71 1015.6
20260903142831 82 56 0.0 1.7 0.00 0.00 0.00 70 1015.6
20260903142729 82 56 0.0 1.7 0.00 0.00 0.00 70 1015.6
20260903142627 82 55 0.0 1.7 0.00 0.00 0.00 70 1015.6
20260903142525 82 56 0.0 1.7 0.00 0.00 0.00 69 1015.6
20260903142443 82 56 0.0 2.6 0.00 0.00 0.00 69 1015.6
20260903142342 82 56 0.0 2.6 0.00 0.00 0.00 69 1015.6
20260903142224 82 56 0.9 2.6 0.00 0.00 0.00 69 1015.6
20260903142143 82 55 0.9 2.6 0.00 0.00 0.00 69 1015.6
20260903142042 82 55 0.0 2.6 0.00 0.00 0.00 69 1015.6
20260903141940 82 54 0.9 2.6 0.00 0.00 0.00 69 1015.6
20260903141838 82 56 0.9 2.6 0.00 0.00 0.00 71 1015.6
20260903141757 81 58 0.9 2.6 0.00 0.00 0.00 71 1015.6
20260903141704 81 56 1.7 2.6 0.00 0.00 0.00 71 1015.6
20260903141525 81 54 0.0 1.7 0.00 0.00 0.00 70 1015.6
20260903141425 81 56 0.0 1.7 0.00 0.00 0.00 70 1015.6
20260903141343 81 56 0.0 1.7 0.00 0.00 0.00 70 1015.6
20260903141240 81 56 0.0 1.7 0.00 0.00 0.00 70 1015.6
20260903141200 81 56 0.9 1.7 0.00 0.00 0.00 70 1015.6
20260903141037 81 55 0.9 1.7 0.00 0.00 0.00 71 1015.6
20260903140934 81 56 0.9 1.7 0.00 0.00 0.00 71 1015.6
20260903140833 81 55 0.0 0.9 0.00 0.00 0.00 71 1015.6
20260903140735 81 54 0.0 0.9 0.00 0.00 0.00 71 1015.6
20260903140653 81 56 0.0 0.9 0.00 0.00 0.00 71 1015.6
20260903140530 81 56 0.0 1.7 0.00 0.00 0.00 71 1015.6
20260903140429 81 56 0.0 1.7 0.00 0.00 0.00 71 1015.6
20260903140327 81 56 0.0 1.7 0.00 0.00 0.00 71 1015.6
20260903140225 81 56 0.0 2.6 0.00 0.00 0.00 70 1015.6
20260903140156 81 54 0.0 2.6 0.00 0.00 0.00 70 1015.6
20260903140031 81 55 0.0 2.6 0.00 0.00 0.00 68 1015.6
20260903135934 81 54 0.0 2.6 0.00 0.00 0.00 69 1015.6
20260903135833 81 56 0.0 2.6 0.00 0.00 0.00 69 1015.6
20260903135732 81 55 0.9 2.6 0.00 0.00 0.00 69 1015.6
20260903135630 81 55 0.9 2.6 0.00 0.00 0.00 70 1015.6
20260903135529 81 54 0.9 2.6 0.00 0.00 0.00 69 1015.6
20260903135427 81 56 0.9 2.6 0.00 0.00 0.00 68 1015.6
20260903135327 81 56 0.0 1.7 0.00 0.00 0.00 68 1015.6
20260903135230 81 56 0.9 1.7 0.00 0.00 0.00 68 1015.6
20260903135128 81 55 0.9 1.7 0.00 0.00 0.00 69 1015.6
20260903135027 81 55 0.0 1.7 0.00 0.00 0.00 69 1015.6
20260903134945 81 56 0.0 1.7 0.00 0.00 0.00 69 1015.6
20260903134903 80 56 0.0 1.7 0.00 0.00 0.00 68 1015.6
20260903134740 80 56 0.0 1.7 0.00 0.00 0.00 69 1015.6
20260903134648 80 56 0.0 1.7 0.00 0.00 0.00 69 1015.6
20260903134525 80 56 0.0 1.7 0.00 0.00 0.00 69 1015.6
20260903134448 80 56 0.9 1.7 0.00 0.00 0.00 69 1015.6
20260903134325 80 55 0.0 0.9 0.00 0.00 0.00 69 1015.6
20260903134224 80 56 0.0 0.0 0.00 0.00 0.00 69 1015.4
20260903134143 80 56 0.0 0.0 0.00 0.00 0.00 70 1015.4
20260903134101 80 56 0.0 0.0 0.00 0.00 0.00 70 1015.4
20260903133957 80 56 0.0 0.0 0.00 0.00 0.00 70 1015.4
20260903133837 80 56 0.0 1.7 0.00 0.00 0.00 70 1015.4
20260903133754 80 51 0.0 1.7 0.00 0.00 0.00 70 1015.4
20260903133631 80 56 0.0 1.7 0.00 0.00 0.00 70 1015.4
20260903133535 80 56 0.0 1.7 0.00 0.00 0.00 71 1015.4
20260903133453 80 55 0.0 1.7 0.00 0.00 0.00 70 1015.4
20260903133330 80 56 0.0 1.7 0.00 0.00 0.00 70 1015.4
20260903133249 80 56 0.0 1.7 0.00 0.00 0.00 70 1015.4
20260903133221 80 55 0.0 1.7 0.00 0.00 0.00 70 1015.4
20260903133036 80 56 0.0 1.7 0.00 0.00 0.00 70 1015.4
20260903132937 80 56 0.0 1.7 0.00 0.00 0.00 70 1015.4
20260903132836 80 52 0.0 0.9 0.00 0.00 0.00 70 1015.4
20260903132740 80 56 0.0 0.9 0.00 0.00 0.00 70 1015.6
20260903132638 79 55 0.0 0.9 0.00 0.00 0.00 71 1015.6
20260903132537 79 55 0.0 0.9 0.00 0.00 0.00 71 1015.6
20260903132500 79 56 0.0 0.9 0.00 0.00 0.00 71 1015.6
20260903132337 79 55 0.0 0.9 0.00 0.00 0.00 71 1015.6
20260903132236 79 56 0.0 0.9 0.00 0.00 0.00 71 1015.6
20260903132155 79 56 0.0 0.9 0.00 0.00 0.00 71 1015.6
20260903132052 79 54 0.0 0.9 0.00 0.00 0.00 71 1015.6
20260903131935 79 55 0.0 0.9 0.00 0.00 0.00 71 1015.6
20260903131837 79 55 0.9 0.9 0.00 0.00 0.00 70 1015.6
20260903131756 79 56 0.0 0.9 0.00 0.00 0.00 71 1015.6
20260903131726 79 56 0.0 0.0 0.00 0.00 0.00 71 1015.6
20260903131543 79 56 0.0 0.0 0.00 0.00 0.00 71 1015.6
20260903131442 79 55 0.0 0.0 0.00 0.00 0.00 71 1015.6
20260903131340 79 56 0.0 0.0 0.00 0.00 0.00 71 1015.6
20260903131225 79 56 0.0 0.0 0.00 0.00 0.00 72 1015.6
20260903131123 79 55 0.0 0.0 0.00 0.00 0.00 72 1015.6
20260903131043 79 56 0.0 0.0 0.00 0.00 0.00 72 1015.6
20260903130941 79 54 0.0 0.0 0.00 0.00 0.00 73 1015.6
20260903130840 79 55 0.0 0.0 0.00 0.00 0.00 74 1015.6
20260903130737 79 56 0.0 0.0 0.00 0.00 0.00 75 1015.6
20260903130636 79 56 0.0 0.0 0.00 0.00 0.00 75 1015.6
20260903130539 79 56 0.0 0.0 0.00 0.00 0.00 75 1015.6
20260903130437 79 56 0.0 0.0 0.00 0.00 0.00 75 1015.6
20260903130356 78 56 0.0 0.0 0.00 0.00 0.00 75 1015.6
20260903130253 78 56 0.0 0.0 0.00 0.00 0.00 75 1015.6
20260903130202 78 56 0.0 0.0 0.00 0.00 0.00 75 1015.6
20260903130100 78 56 0.0 0.0 0.00 0.00 0.00 75 1015.6
20260903125937 78 56 0.0 0.0 0.00 0.00 0.00 75 1015.6
20260903125835 78 55 0.0 0.0 0.00 0.00 0.00 75 1015.6
20260903125734 78 56 0.0 0.0 0.00 0.00 0.00 75 1015.7
20260903125636 78 56 0.0 0.0 0.00 0.00 0.00 75 1015.7
20260903125534 78 56 0.0 0.0 0.00 0.00 0.00 75 1015.7
20260903125433 78 56 0.0 0.0 0.00 0.00 0.00 75 1015.7
20260903125332 78 55 0.0 0.0 0.00 0.00 0.00 75 1015.7
20260903125230 78 56 0.0 0.0 0.00 0.00 0.00 75 1015.7
20260903125129 78 55 0.0 0.0 0.00 0.00 0.00 75 1015.7
20260903125031 78 56 0.0 0.0 0.00 0.00 0.00 75 1015.7
20260903124929 78 56 0.0 0.9 0.00 0.00 0.00 75 1015.7
20260903124828 78 52 0.0 0.9 0.00 0.00 0.00 75 1015.7
20260903124726 78 56 0.0 0.9 0.00 0.00 0.00 75 1015.7
20260903124655 78 56 0.0 0.9 0.00 0.00 0.00 75 1015.7
20260903124533 78 58 0.0 0.9 0.00 0.00 0.00 75 1015.7
20260903124432 78 58 0.0 0.9 0.00 0.00 0.00 75 1015.7
20260903124335 78 58 0.0 0.9 0.00 0.00 0.00 75 1015.7
20260903124233 78 56 0.0 0.9 0.00 0.00 0.00 75 1015.6
20260903124131 78 55 0.0 0.9 0.00 0.00 0.00 75 1015.6
20260903124029 78 54 0.9 0.9 0.00 0.00 0.00 75 1015.6
20260903123928 78 55 0.9 0.9 0.00 0.00 0.00 75 1015.6
20260903123832 78 58 0.9 0.9 0.00 0.00 0.00 75 1015.6
20260903123731 78 56 0.0 0.0 0.00 0.00 0.00 75 1015.6
20260903123654 78 56 0.0 0.0 0.00 0.00 0.00 75 1015.6
20260903123552 78 56 0.0 0.0 0.00 0.00 0.00 75 1015.6
20260903123451 78 56 0.0 0.0 0.00 0.00 0.00 74 1015.6
20260903123328 78 56 0.0 0.0 0.00 0.00 0.00 74 1015.6
20260903123237 78 56 0.0 0.0 0.00 0.00 0.00 74 1015.6
20260903123148 78 56 0.0 0.9 0.00 0.00 0.00 74 1015.6
20260903123045 78 56 0.0 0.9 0.00 0.00 0.00 74 1015.6
20260903122942 78 55 0.0 1.7 0.00 0.00 0.00 74 1015.6
20260903122900 78 56 0.0 1.7 0.00 0.00 0.00 74 1015.6
20260903122737 78 55 0.0 1.7 0.00 0.00 0.00 74 1015.5
20260903122640 78 56 0.0 1.7 0.00 0.00 0.00 74 1015.5
20260903122559 78 55 0.0 1.7 0.00 0.00 0.00 74 1015.5
20260903122435 78 56 0.0 1.7 0.00 0.00 0.00 74 1015.5
20260903122333 78 54 0.0 1.7 0.00 0.00 0.00 74 1015.5
20260903122231 78 56 0.9 1.7 0.00 0.00 0.00 74 1015.5
20260903122128 78 56 0.9 1.7 0.00 0.00 0.00 74 1015.5
20260903122028 78 56 0.9 1.7 0.00 0.00 0.00 74 1015.5
20260903121930 77 56 0.9 1.7 0.00 0.00 0.00 74 1015.5
20260903121828 77 58 0.9 1.7 0.00 0.00 0.00 74 1015.5
20260903121737 77 56 0.9 1.7 0.00 0.00 0.00 74 1015.5
20260903121646 77 58 1.7 1.7 0.00 0.00 0.00 73 1015.5
20260903121524 77 56 0.9 1.7 0.00 0.00 0.00 73 1015.5
20260903121443 77 56 1.7 1.7 0.00 0.00 0.00 73 1015.5
20260903121341 77 56 0.9 1.7 0.00 0.00 0.00 73 1015.5
20260903121222 77 56 0.9 1.7 0.00 0.00 0.00 73 1015.3
20260903121125 77 56 0.9 1.7 0.00 0.00 0.00 73 1015.3
20260903121027 77 56 0.9 1.7 0.00 0.00 0.00 72 1015.3
20260903120926 77 56 1.7 1.7 0.00 0.00 0.00 72 1015.3
20260903120825 77 55 1.7 1.7 0.00 0.00 0.00 72 1015.3
20260903120743 77 56 0.9 1.7 0.00 0.00 0.00 73 1015.3
20260903120625 77 56 1.7 2.6 0.00 0.00 0.00 73 1015.3
20260903120543 77 54 1.7 2.6 0.00 0.00 0.00 73 1015.3
20260903120501 77 56 0.9 2.6 0.00 0.00 0.00 73 1015.3
20260903120339 77 55 0.9 2.6 0.00 0.00 0.00 72 1015.3
20260903120238 77 56 0.9 2.6 0.00 0.00 0.00 72 1015.3
20260903120208 77 54 0.9 2.6 0.00 0.00 0.00 73 1015.3
20260903120104 77 56 0.9 2.6 0.00 0.00 0.00 73 1015.3
20260903115942 77 55 1.7 2.6 0.00 0.00 0.00 73 1015.3
20260903115824 77 56 1.7 2.6 0.00 0.00 0.00 73 1015.3
20260903115743 77 56 1.7 2.6 0.00 0.00 0.00 73 1015.3
20260903115703 77 58 1.7 2.6 0.00 0.00 0.00 73 1015.3
20260903115600 77 54 1.7 2.6 0.00 0.00 0.00 73 1015.3
20260903115437 77 56 0.9 2.6 0.00 0.00 0.00 73 1015.3
20260903115335 77 56 1.7 2.6 0.00 0.00 0.00 73 1015.3
20260903115233 77 58 1.7 2.6 0.00 0.00 0.00 73 1015.3
20260903115132 77 56 1.7 2.6 0.00 0.00 0.00 73 1015.3
20260903115033 77 58 1.7 2.6 0.00 0.00 0.00 72 1015.3
20260903114933 77 56 1.7 2.6 0.00 0.00 0.00 72 1015.3
20260903114833 77 56 1.7 2.6 0.00 0.00 0.00 72 1015.3
20260903114750 77 56 0.9 2.6 0.00 0.00 0.00 72 1015.3
20260903114721 77 56 0.9 2.6 0.00 0.00 0.00 71 1015.3
20260903114538 77 56 1.7 2.6 0.00 0.00 0.00 71 1015.3
20260903114437 77 56 1.7 2.6 0.00 0.00 0.00 71 1015.3
20260903114335 77 55 1.7 2.6 0.00 0.00 0.00 71 1015.3
20260903114236 77 54 1.7 2.6 0.00 0.00 0.00 71 1015.2
20260903114135 77 55 1.7 2.6 0.00 0.00 0.00 71 1015.2
20260903114033 77 56 0.9 2.6 0.00 0.00 0.00 71 1015.2
20260903113934 77 56 0.9 2.6 0.00 0.00 0.00 71 1015.2
20260903113832 77 58 0.9 2.6 0.00 0.00 0.00 71 1015.2
20260903113731 77 54 1.7 2.6 0.00 0.00 0.00 71 1015.2
20260903113630 77 56 0.9 2.6 0.00 0.00 0.00 71 1015.2
20260903113532 77 56 0.9 2.6 0.00 0.00 0.00 71 1015.2
20260903113432 77 54 1.7 2.6 0.00 0.00 0.00 71 1015.2
20260903113330 77 56 1.7 2.6 0.00 0.00 0.00 72 1015.2
20260903113226 77 56 1.7 2.6 0.00 0.00 0.00 71 1015.2
20260903113157 77 55 1.7 2.6 0.00 0.00 0.00 71 1015.2
20260903113037 77 56 2.6 2.6 0.00 0.00 0.00 72 1015.2
20260903112936 77 56 2.6 2.6 0.00 0.00 0.00 71 1015.2
20260903112839 77 55 2.6 2.6 0.00 0.00 0.00 71 1015.2
20260903112738 77 56 2.6 2.6 0.00 0.00 0.00 71 1015.1
20260903112657 77 55 2.6 2.6 0.00 0.00 0.00 71 1015.1
20260903112534 77 56 2.6 2.6 0.00 0.00 0.00 71 1015.1
20260903112432 77 56 1.7 2.6 0.00 0.00 0.00 71 1015.1
20260903112350 77 56 1.7 2.6 0.00 0.00 0.00 71 1015.1
20260903112227 77 56 1.7 2.6 0.00 0.00 0.00 71 1015.1
20260903112125 77 58 0.9 2.6 0.00 0.00 0.00 71 1015.1
20260903112028 77 54 1.7 2.6 0.00 0.00 0.00 72 1015.1
20260903111926 77 55 0.9 2.6 0.00 0.00 0.00 72 1015.1
20260903111825 77 55 0.9 2.6 0.00 0.00 0.00 72 1015.1
20260903111735 77 51 0.9 2.6 0.00 0.00 0.00 72 1015.1
20260903111645 77 52 0.9 2.6 0.00 0.00 0.00 73 1015.1
20260903111524 77 56 1.7 2.6 0.00 0.00 0.00 72 1015.1
20260903111443 77 56 1.7 2.6 0.00 0.00 0.00 72 1015.1
20260903111326 77 55 1.7 2.6 0.00 0.00 0.00 72 1015.1
20260903111225 77 54 1.7 2.6 0.00 0.00 0.00 72 1014.8
20260903111143 77 55 1.7 2.6 0.00 0.00 0.00 72 1014.8
20260903111042 77 56 1.7 2.6 0.00 0.00 0.00 72 1014.8
20260903110940 77 55 1.7 4.3 0.00 0.00 0.00 72 1014.8
20260903110838 77 55 1.7 4.3 0.00 0.00 0.00 72 1014.8
20260903110734 77 56 1.7 4.3 0.00 0.00 0.00 73 1014.8
20260903110633 77 56 1.7 4.3 0.00 0.00 0.00 73 1014.8
20260903110535 77 56 2.6 4.3 0.00 0.00 0.00 73 1014.8
20260903110433 77 54 1.7 4.3 0.00 0.00 0.00 72 1014.8
20260903110331 77 58 1.7 4.3 0.00 0.00 0.00 72 1014.8
20260903110229 77 58 1.7 4.3 0.00 0.00 0.00 72 1014.8
20260903110200 77 56 2.6 4.3 0.00 0.00 0.00 72 1014.8
20260903110037 77 58 2.6 4.3 0.00 0.00 0.00 72 1014.8
20260903105935 77 56 2.6 4.3 0.00 0.00 0.00 72 1014.8
20260903105837 77 56 2.6 4.3 0.00 0.00 0.00 72 1014.8
20260903105736 77 56 2.6 4.3 0.00 0.00 0.00 73 1014.7
20260903105633 77 56 2.6 4.3 0.00 0.00 0.00 73 1014.7
20260903105552 77 56 2.6 4.3 0.00 0.00 0.00 73 1014.7
20260903105429 77 56 2.6 4.3 0.00 0.00 0.00 72 1014.7
20260903105327 77 56 2.6 4.3 0.00 0.00 0.00 73 1014.7
20260903105226 77 56 2.6 4.3 0.00 0.00 0.00 73 1014.7
20260903105148 77 56 3.5 4.3 0.00 0.00 0.00 73 1014.7
20260903105045 77 58 2.6 4.3 0.00 0.00 0.00 73 1014.7
20260903104941 77 56 2.6 5.2 0.00 0.00 0.00 73 1014.7
20260903104901 77 56 2.6 5.2 0.00 0.00 0.00 73 1014.7
20260903104819 77 56 2.6 5.2 0.00 0.00 0.00 73 1014.7
20260903104704 77 58 3.5 5.2 0.00 0.00 0.00 73 1014.7
20260903104542 77 54 3.5 5.2 0.00 0.00 0.00 73 1014.7
20260903104440 77 55 3.5 5.2 0.00 0.00 0.00 73 1014.7
20260903104338 77 58 3.5 5.2 0.00 0.00 0.00 73 1014.7
20260903104256 77 56 3.5 5.2 0.00 0.00 0.00 74 1014.6
20260903104135 77 54 3.5 5.2 0.00 0.00 0.00 74 1014.6
20260903104034 77 55 2.6 5.2 0.00 0.00 0.00 74 1014.6
20260903103932 77 56 4.3 5.2 0.00 0.00 0.00 74 1014.6
20260903103830 77 56 3.5 5.2 0.00 0.00 0.00 74 1014.6
20260903103752 77 56 3.5 5.2 0.00 0.00 0.00 74 1014.6
20260903103628 77 56 4.3 5.2 0.00 0.00 0.00 75 1014.6
20260903103527 77 55 3.5 5.2 0.00 0.00 0.00 75 1014.6
20260903103430 77 56 3.5 5.2 0.00 0.00 0.00 75 1014.6
20260903103331 77 55 3.5 5.2 0.00 0.00 0.00 75 1014.6
20260903103240 77 56 2.6 5.2 0.00 0.00 0.00 75 1014.6
20260903103150 77 56 2.6 5.2 0.00 0.00 0.00 75 1014.6
20260903103027 77 56 3.5 5.2 0.00 0.00 0.00 75 1014.6
20260903102924 77 56 3.5 5.2 0.00 0.00 0.00 75 1014.6
20260903102843 77 56 3.5 5.2 0.00 0.00 0.00 75 1014.6
20260903102725 77 56 3.5 5.2 0.00 0.00 0.00 75 1014.5
20260903102642 77 51 3.5 5.2 0.00 0.00 0.00 75 1014.5
20260903102541 77 56 4.3 5.2 0.00 0.00 0.00 75 1014.5
20260903102440 77 56 4.3 5.2 0.00 0.00 0.00 75 1014.5
20260903102339 77 56 4.3 5.2 0.00 0.00 0.00 75 1014.5
20260903102237 77 54 4.3 5.2 0.00 0.00 0.00 75 1014.5
20260903102135 77 56 4.3 5.2 0.00 0.00 0.00 75 1014.5
20260903102037 77 56 4.3 5.2 0.00 0.00 0.00 75 1014.5
20260903101935 77 56 4.3 5.2 0.00 0.00 0.00 75 1014.5
20260903101833 77 55 4.3 5.2 0.00 0.00 0.00 75 1014.5
20260903101742 77 55 4.3 5.2 0.00 0.00 0.00 75 1014.5
20260903101651 77 55 4.3 5.2 0.00 0.00 0.00 75 1014.5
20260903101529 77 52 4.3 5.2 0.00 0.00 0.00 74 1014.5
20260903101427 77 54 4.3 5.2 0.00 0.00 0.00 74 1014.5
20260903101329 77 55 3.5 5.2 0.00 0.00 0.00 74 1014.5
20260903101247 77 45 4.3 5.2 0.00 0.00 0.00 74 1014.5
20260903101205 77 48 4.3 5.2 0.00 0.00 0.00 74 1014.5
20260903101103 77 44 3.5 5.2 0.00 0.00 0.00 74 1014.5
20260903100940 77 44 4.3 5.2 0.00 0.00 0.00 74 1014.5
20260903100900 77 45 3.5 5.2 0.00 0.00 0.00 74 1014.5
20260903100736 77 45 3.5 5.2 0.00 0.00 0.00 74 1014.5
20260903100634 77 42 2.6 5.2 0.00 0.00 0.00 73 1014.5
20260903100531 77 44 3.5 5.2 0.00 0.00 0.00 73 1014.5
20260903100433 77 41 3.5 5.2 0.00 0.00 0.00 73 1014.5
20260903100351 77 44 3.5 5.2 0.00 0.00 0.00 72 1014.5
20260903100238 77 44 3.5 5.2 0.00 0.00 0.00 72 1014.5
20260903100147 77 44 4.3 5.2 0.00 0.00 0.00 72 1014.5
20260903100027 77 45 4.3 5.2 0.00 0.00 0.00 72 1014.5
20260903095947 77 44 3.5 5.2 0.00 0.00 0.00 72 1014.5
20260903095843 77 44 3.5 5.2 0.00 0.00 0.00 72 1014.5
20260903095742 77 41 3.5 5.2 0.00 0.00 0.00 72 1015.3
20260903095624 77 42 3.5 5.2 0.00 0.00 0.00 72 1015.3
20260903095544 77 42 3.5 5.2 0.00 0.00 0.00 72 1015.3
20260903095442 77 42 3.5 5.2 0.00 0.00 0.00 72 1015.3
20260903095341 77 42 4.3 5.2 0.00 0.00 0.00 72 1015.3
20260903095240 77 42 3.5 5.2 0.00 0.00 0.00 72 1015.3
20260903095139 77 41 3.5 5.2 0.00 0.00 0.00 73 1015.3
20260903095057 77 41 3.5 5.2 0.00 0.00 0.00 72 1015.3
20260903094934 78 41 3.5 5.2 0.00 0.00 0.00 72 1015.3
20260903094838 78 41 4.3 5.2 0.00 0.00 0.00 72 1015.3
20260903094735 78 38 4.3 5.2 0.00 0.00 0.00 72 1015.3
20260903094704 78 41 3.5 5.2 0.00 0.00 0.00 72 1015.3
20260903094541 78 42 4.3 5.2 0.00 0.00 0.00 72 1015.3
20260903094441 78 41 4.3 5.2 0.00 0.00 0.00 72 1015.3
20260903094340 78 40 4.3 5.2 0.00 0.00 0.00 72 1015.3
20260903094258 78 41 4.3 5.2 0.00 0.00 0.00 72 1015.3
20260903094139 78 25 4.3 5.2 0.00 0.00 0.00 71 1015.3
20260903094037 78 24 4.3 5.2 0.00 0.00 0.00 71 1015.3
20260903093935 78 21 3.5 4.3 0.00 0.00 0.00 71 1015.3
20260903093853 78 23 3.5 4.3 0.00 0.00 0.00 71 1015.3
20260903093732 78 23 3.5 4.3 0.00 0.00 0.00 71 1015.3
20260903093652 78 21 2.6 4.3 0.00 0.00 0.00 71 1015.3
20260903093549 78 8 3.5 4.3 0.00 0.00 0.00 71 1015.3
20260903093426 78 3 4.3 4.3 0.00 0.00 0.00 71 1015.3
20260903093326 78 3 4.3 4.3 0.00 0.00 0.00 71 1015.3
20260903093300 78 4 4.3 4.3 0.00 0.00 0.00 71 1015.3
20260903093148 78 4 2.6 4.3 0.00 0.00 0.00 71 1015.3
20260903093025 78 360 2.6 4.3 0.00 0.00 0.00 71 1015.3
20260903092945 78 4 3.5 4.3 0.00 0.00 0.00 71 1015.3
20260903092844 78 4 3.5 4.3 0.00 0.00 0.00 71 1015.3
20260903092742 78 4 3.5 4.3 0.00 0.00 0.00 70 1015.3
20260903092640 78 4 3.5 4.3 0.00 0.00 0.00 70 1015.3
20260903092537 78 6 3.5 4.3 0.00 0.00 0.00 70 1015.3
20260903092435 78 4 2.6 4.3 0.00 0.00 0.00 70 1015.3
20260903092340 78 328 2.6 4.3 0.00 0.00 0.00 69 1015.3
20260903092259 78 326 3.5 4.3 0.00 0.00 0.00 69 1015.3
20260903092135 78 323 3.5 4.3 0.00 0.00 0.00 69 1015.3
20260903092033 78 328 2.6 4.3 0.00 0.00 0.00 69 1015.3
20260903091930 78 328 2.6 4.3 0.00 0.00 0.00 69 1015.3
20260903091829 78 316 2.6 4.3 0.00 0.00 0.00 69 1015.3
20260903091737 78 326 3.5 4.3 0.00 0.00 0.00 69 1015.3
20260903091647 78 329 3.5 4.3 0.00 0.00 0.00 70 1015.3
20260903091530 78 328 3.5 4.3 0.00 0.00 0.00 70 1015.3
20260903091429 78 325 2.6 4.3 0.00 0.00 0.00 70 1015.3
20260903091328 78 326 3.5 4.3 0.00 0.00 0.00 70 1015.3
20260903091225 78 328 2.6 4.3 0.00 0.00 0.00 70 1014.4
20260903091142 78 328 1.7 4.3 0.00 0.00 0.00 69 1014.4
20260903091101 78 328 2.6 4.3 0.00 0.00 0.00 69 1014.4
20260903090938 78 326 2.6 4.3 0.00 0.00 0.00 70 1014.4
20260903090836 78 326 2.6 4.3 0.00 0.00 0.00 70 1014.4
20260903090739 78 328 2.6 4.3 0.00 0.00 0.00 69 1014.4
20260903090637 78 330 1.7 3.5 0.00 0.00 0.00 70 1014.4
20260903090534 78 328 2.6 3.5 0.00 0.00 0.00 69 1014.4
20260903090433 78 326 2.6 3.5 0.00 0.00 0.00 69 1014.4
20260903090352 78 328 2.6 3.5 0.00 0.00 0.00 69 1014.4
20260903090239 78 325 2.6 3.5 0.00 0.00 0.00 68 1014.4
20260903090148 78 329 2.6 3.5 0.00 0.00 0.00 68 1014.4
20260903090025 78 325 2.6 4.3 0.00 0.00 0.00 68 1014.4
20260903085950 78 328 2.6 4.3 0.00 0.00 0.00 67 1014.4
20260903085848 78 326 2.6 4.3 0.00 0.00 0.00 67 1014.4
20260903085725 78 328 2.6 4.3 0.00 0.00 0.00 67 1014.3
20260903085643 78 326 2.6 4.3 0.00 0.00 0.00 67 1014.3
20260903085542 78 328 2.6 4.3 0.00 0.00 0.00 67 1014.3
20260903085500 78 326 2.6 4.3 0.00 0.00 0.00 67 1014.3
20260903085338 78 304 2.6 4.3 0.00 0.00 0.00 67 1014.3
20260903085237 78 328 2.6 4.3 0.00 0.00 0.00 67 1014.3
20260903085139 78 360 2.6 2.6 0.00 0.00 0.00 67 1014.3
20260903085058 78 360 2.6 2.6 0.00 0.00 0.00 67 1014.3
20260903084936 78 360 2.6 2.6 0.00 0.00 0.00 67 1014.3
20260903084833 78 360 2.6 2.6 0.00 0.00 0.00 67 1014.3
20260903084803 78 360 2.6 2.6 0.00 0.00 0.00 67 1014.3
20260903084651 78 359 2.6 2.6 0.00 0.00 0.00 67 1014.3
20260903084529 78 357 2.6 2.6 0.00 0.00 0.00 67 1014.3
20260903084448 78 360 2.6 2.6 0.00 0.00 0.00 67 1014.3
20260903084326 78 359 2.6 2.6 0.00 0.00 0.00 67 1014.3
20260903084228 78 360 2.6 2.6 0.00 0.00 0.00 67 1015.1
20260903084127 78 360 2.6 2.6 0.00 0.00 0.00 67 1015.1
20260903084024 78 360 2.6 2.6 0.00 0.00 0.00 67 1015.1
20260903083924 78 360 2.6 2.6 0.00 0.00 0.00 67 1015.1
20260903083841 78 360 2.6 2.6 0.00 0.00 0.00 67 1015.1
20260903083739 78 360 2.6 2.6 0.00 0.00 0.00 67 1015.1
20260903083637 79 360 2.6 2.6 0.00 0.00 0.00 67 1015.1
20260903083540 79 356 2.6 2.6 0.00 0.00 0.00 67 1015.1
20260903083438 79 360 2.6 2.6 0.00 0.00 0.00 67 1015.1
20260903083337 79 359 1.7 2.6 0.00 0.00 0.00 68 1015.1
20260903083235 79 356 0.0 0.0 0.00 0.00 0.00 68 1015.1
20260903083205 79 360 0.0 0.0 0.00 0.00 0.00 67 1015.1
20260903083042 79 357 0.0 0.0 0.00 0.00 0.00 67 1015.1
20260903082925 79 360 0.0 0.0 0.00 0.00 0.00 68 1015.1
20260903082842 79 360 0.0 0.0 0.00 0.00 0.00 68 1015.1
20260903082740 79 360 0.0 0.0 0.00 0.00 0.00 68 1014.4
20260903082639 79 360 0.0 0.0 0.00 0.00 0.00 68 1014.4
20260903082537 79 360 0.0 0.0 0.00 0.00 0.00 68 1014.4
20260903082434 79 360 0.0 0.0 0.00 0.00 0.00 68 1014.4
20260903082353 79 360 0.0 0.0 0.00 0.00 0.00 68 1014.4
20260903082229 79 360 0.0 0.0 0.00 0.00 0.00 68 1014.4
20260903082132 79 359 0.0 0.0 0.00 0.00 0.00 68 1014.4
20260903082030 79 360 0.0 0.0 0.00 0.00 0.00 68 1014.4
20260903081926 79 360 0.0 0.0 0.00 0.00 0.00 68 1014.4
20260903081825 79 360 0.0 0.0 0.00 0.00 0.00 68 1014.4
20260903081724 79 360 0.0 0.0 0.00 0.00 0.00 68 1014.4
20260903081654 79 360 0.0 0.0 0.00 0.00 0.00 68 1014.4
20260903081532 79 360 0.0 0.0 0.00 0.00 0.00 68 1014.4
20260903081428 79 360 0.0 0.0 0.00 0.00 0.00 68 1014.4
20260903081331 78 354 0.0 0.0 0.00 0.00 0.00 68 1014.4
20260903081251 78 360 0.0 0.0 0.00 0.00 0.00 68 1014.3
20260903081148 78 360 0.0 0.0 0.00 0.00 0.00 68 1014.3
20260903081107 78 360 0.0 0.0 0.00 0.00 0.00 68 1014.3
20260903080944 78 357 0.0 0.0 0.00 0.00 0.00 68 1014.3
20260903080903 78 360 0.0 0.0 0.00 0.00 0.00 68 1014.3
20260903080740 78 359 0.0 0.0 0.00 0.00 0.00 68 1014.3
20260903080638 78 360 0.0 0.0 0.00 0.00 0.00 68 1014.3
20260903080536 78 360 0.0 0.0 0.00 0.00 0.00 68 1014.3
20260903080438 78 357 0.0 0.0 0.00 0.00 0.00 68 1014.3
20260903080336 78 360 0.0 0.0 0.00 0.00 0.00 68 1014.3
20260903080225 78 360 0.0 0.0 0.00 0.00 0.00 68 1014.3
20260903075937 78 360 0.0 0.0 0.00 0.00 0.00 68 1014.3
20260903075835 78 360 0.0 0.0 0.00 0.00 0.00 68 1014.3
20260903075752 78 360 0.0 0.0 0.00 0.00 0.00 68 1014.4
20260903075630 78 357 0.0 0.0 0.00 0.00 0.00 68 1014.4
20260903075533 78 360 0.0 0.0 0.00 0.00 0.00 68 1014.4
20260903075431 78 360 0.0 0.0 0.00 0.00 0.00 68 1014.4
20260903075350 78 360 0.0 0.0 0.00 0.00 0.00 68 1014.4
20260903075228 78 360 0.0 0.0 0.00 0.00 0.00 68 1014.4
20260903075127 78 360 0.0 0.0 0.00 0.00 0.00 68 1014.4
20260903075046 78 360 0.0 0.0 0.00 0.00 0.00 68 1014.4
20260903075004 78 360 0.0 0.0 0.00 0.00 0.00 68 1014.4
20260903074841 79 360 0.0 0.0 0.00 0.00 0.00 68 1014.4
20260903074724 79 360 0.0 0.0 0.00 0.00 0.00 68 1014.4
20260903074654 78 360 0.0 0.0 0.00 0.00 0.00 68 1014.4
20260903074532 79 360 0.0 0.0 0.00 0.00 0.00 68 1014.4
20260903074430 79 357 0.0 0.0 0.00 0.00 0.00 68 1014.4
20260903074330 79 360 0.0 0.0 0.00 0.00 0.00 68 1014.4
20260903074231 79 360 0.0 0.0 0.00 0.00 0.00 68 1014.4
20260903074127 79 360 0.0 0.0 0.00 0.00 0.00 68 1014.4
20260903074029 79 360 0.0 0.0 0.00 0.00 0.00 68 1014.4
20260903073947 79 360 0.0 0.0 0.00 0.00 0.00 68 1014.4
20260903073846 79 360 0.0 0.0 0.00 0.00 0.00 68 1014.4
20260903073748 79 360 0.0 0.0 0.00 0.00 0.00 68 1014.4
20260903073645 79 360 0.0 0.0 0.00 0.00 0.00 68 1014.4
20260903073603 79 359 0.0 0.0 0.00 0.00 0.00 68 1014.4
20260903073441 79 360 0.0 0.0 0.00 0.00 0.00 68 1014.4
20260903073339 79 360 0.0 0.0 0.00 0.00 0.00 68 1014.4
20260903073258 79 357 0.0 0.0 0.00 0.00 0.00 68 1014.4
20260903073208 79 360 0.0 0.0 0.00 0.00 0.00 68 1014.4
20260903073030 79 360 0.0 0.0 0.00 0.00 0.00 68 1014.4
20260903072929 79 359 0.0 0.0 0.00 0.00 0.00 68 1014.4
20260903072828 79 360 0.0 0.0 0.00 0.00 0.00 68 1014.4
20260903072725 79 360 0.0 0.0 0.00 0.00 0.00 68 1014.4
20260903072643 79 359 0.0 0.0 0.00 0.00 0.00 68 1014.4
20260903072524 79 360 0.0 0.0 0.00 0.00 0.00 68 1014.4
20260903072427 79 360 0.0 0.0 0.00 0.00 0.00 68 1014.4
20260903072325 79 359 0.0 0.0 0.00 0.00 0.00 68 1014.4
20260903072242 79 360 0.0 0.0 0.00 0.00 0.00 68 1014.4
20260903072141 79 360 0.0 0.0 0.00 0.00 0.00 68 1014.4
20260903072042 79 360 0.0 0.0 0.00 0.00 0.00 68 1014.4
20260903072002 79 360 0.0 0.0 0.00 0.00 0.00 68 1014.4
20260903071859 79 360 0.0 0.0 0.00 0.00 0.00 68 1014.4
20260903071704 79 360 0.0 0.0 0.00 0.00 0.00 68 1014.4
20260903071525 79 360 0.0 0.0 0.00 0.00 0.00 68 1014.4
20260903071443 79 360 0.0 0.0 0.00 0.00 0.00 68 1014.4
20260903071341 79 360 0.0 0.0 0.00 0.00 0.00 68 1014.4
20260903071240 79 359 0.0 0.0 0.00 0.00 0.00 68 1014.4
20260903071137 79 360 0.0 0.0 0.00 0.00 0.00 68 1014.4
20260903071035 79 360 0.0 0.0 0.00 0.00 0.00 68 1014.4
20260903070934 79 360 0.0 0.0 0.00 0.00 0.00 68 1014.4
20260903070837 79 360 0.0 0.0 0.00 0.00 0.00 68 1014.4
20260903070736 79 360 0.0 0.0 0.00 0.00 0.00 68 1014.4
20260903070635 79 360 0.0 0.0 0.00 0.00 0.00 69 1014.4
20260903070534 79 359 0.0 0.0 0.00 0.00 0.00 68 1014.4
20260903070453 79 360 0.0 0.0 0.00 0.00 0.00 68 1014.4
20260903070351 79 360 0.0 0.0 0.00 0.00 0.00 68 1014.4
20260903070228 79 360 0.0 0.0 0.00 0.00 0.00 68 1014.4
20260903070200 79 360 0.0 0.0 0.00 0.00 0.00 68 1014.4
20260903070041 79 360 0.0 0.0 0.00 0.00 0.00 68 1014.4
20260903065939 79 360 0.0 0.0 0.00 0.00 0.00 68 1014.4
20260903065837 79 360 0.0 0.0 0.00 0.00 0.00 68 1014.4
20260903065737 79 360 0.0 0.0 0.00 0.00 0.00 68 1015.4
20260903065637 79 360 0.0 0.0 0.00 0.00 0.00 68 1015.4
20260903065535 79 360 0.0 0.0 0.00 0.00 0.00 68 1015.4
20260903065439 79 360 0.0 0.0 0.00 0.00 0.00 68 1015.4
20260903065337 79 360 0.0 0.0 0.00 0.00 0.00 68 1015.4
20260903065236 79 360 0.0 0.0 0.00 0.00 0.00 68 1015.4
20260903065132 79 360 0.0 0.0 0.00 0.00 0.00 68 1015.4
20260903065031 79 360 0.0 0.0 0.00 0.00 0.00 68 1015.4
20260903064950 79 360 0.0 0.0 0.00 0.00 0.00 68 1015.4
20260903064827 79 360 0.0 0.0 0.00 0.00 0.00 68 1015.4
20260903064737 79 360 0.0 0.0 0.00 0.00 0.00 68 1015.4
20260903064649 79 360 0.0 0.0 0.00 0.00 0.00 68 1015.4
20260903064548 79 359 0.0 0.0 0.00 0.00 0.00 68 1015.4
20260903064425 79 359 0.0 0.0 0.00 0.00 0.00 68 1015.4
20260903064325 79 360 0.0 0.0 0.00 0.00 0.00 68 1015.4
20260903064243 79 360 0.0 0.0 0.00 0.00 0.00 68 1015.4
20260903064202 79 360 0.0 0.0 0.00 0.00 0.00 68 1015.4
20260903064040 79 360 0.0 0.0 0.00 0.00 0.00 68 1015.4
20260903063937 79 360 0.0 0.0 0.00 0.00 0.00 68 1015.4
20260903063840 79 359 0.0 0.0 0.00 0.00 0.00 68 1015.4
20260903063739 79 360 0.0 0.0 0.00 0.00 0.00 68 1015.4
20260903063638 79 360 0.0 0.0 0.00 0.00 0.00 68 1015.4
20260903063536 79 360 0.0 0.0 0.00 0.00 0.00 68 1015.4
20260903063434 79 360 0.0 0.0 0.00 0.00 0.00 68 1015.4
20260903063333 79 359 0.0 0.0 0.00 0.00 0.00 68 1015.4
20260903063251 79 357 0.0 0.0 0.00 0.00 0.00 68 1015.4
20260903063221 79 360 0.0 0.0 0.00 0.00 0.00 68 1015.4
20260903063041 79 357 0.0 0.9 0.00 0.00 0.00 68 1015.4
20260903062959 79 360 0.0 0.9 0.00 0.00 0.00 68 1015.4
20260903062835 79 360 0.0 1.7 0.00 0.00 0.00 68 1015.4
20260903062753 79 360 0.0 1.7 0.00 0.00 0.00 68 1015.5
20260903062631 79 360 0.0 1.7 0.00 0.00 0.00 68 1015.5
20260903062530 79 360 0.0 1.7 0.00 0.00 0.00 68 1015.5
20260903062428 79 359 0.0 1.7 0.00 0.00 0.00 68 1015.5
20260903062327 79 360 0.0 1.7 0.00 0.00 0.00 69 1015.5
20260903062230 79 360 0.9 1.7 0.00 0.00 0.00 69 1015.5
20260903062130 79 360 0.9 1.7 0.00 0.00 0.00 68 1015.5
20260903062028 79 360 0.9 1.7 0.00 0.00 0.00 68 1015.5
20260903061928 79 360 0.9 1.7 0.00 0.00 0.00 68 1015.5
20260903061828 79 356 0.9 1.7 0.00 0.00 0.00 68 1015.5
20260903061751 79 359 0.9 1.7 0.00 0.00 0.00 69 1015.5
20260903061700 79 359 0.9 1.7 0.00 0.00 0.00 69 1015.5
20260903061601 79 360 0.9 1.7 0.00 0.00 0.00 69 1015.5
20260903061422 79 360 1.7 1.7 0.00 0.00 0.00 68 1015.5
20260903061343 79 360 0.9 1.7 0.00 0.00 0.00 68 1015.5
20260903061241 79 360 0.9 1.7 0.00 0.00 0.00 68 1015.4
20260903061139 79 360 1.7 1.7 0.00 0.00 0.00 68 1015.4
20260903061038 80 359 1.7 1.7 0.00 0.00 0.00 68 1015.4
20260903060936 80 359 1.7 1.7 0.00 0.00 0.00 68 1015.4
20260903060834 80 360 1.7 1.7 0.00 0.00 0.00 68 1015.4
20260903060738 80 360 1.7 1.7 0.00 0.00 0.00 68 1015.4
20260903060657 80 360 0.9 1.7 0.00 0.00 0.00 68 1015.4
20260903060535 80 357 0.9 1.7 0.00 0.00 0.00 69 1015.4
20260903060433 80 360 0.9 1.7 0.00 0.00 0.00 69 1015.4
20260903060332 80 360 0.9 2.6 0.00 0.00 0.00 69 1015.4
20260903060252 80 360 1.7 2.6 0.00 0.00 0.00 69 1015.4
20260903060221 80 360 0.9 2.6 0.00 0.00 0.00 69 1015.4
20260903060037 80 360 1.7 2.6 0.00 0.00 0.00 69 1015.4
20260903055939 80 360 1.7 2.6 0.00 0.00 0.00 69 1015.4
20260903055838 80 359 1.7 2.6 0.00 0.00 0.00 69 1015.4
20260903055757 80 360 0.9 2.6 0.00 0.00 0.00 69 1015.5
20260903055635 80 359 0.9 2.6 0.00 0.00 0.00 68 1015.5
20260903055534 80 360 1.7 2.6 0.00 0.00 0.00 68 1015.5
20260903055432 80 359 1.7 1.7 0.00 0.00 0.00 68 1015.5
20260903055332 80 360 1.7 1.7 0.00 0.00 0.00 68 1015.5
20260903055234 80 359 1.7 1.7 0.00 0.00 0.00 68 1015.5
20260903055133 80 356 0.9 1.7 0.00 0.00 0.00 68 1015.5
20260903055031 80 360 0.9 2.6 0.00 0.00 0.00 69 1015.5
20260903054930 80 359 1.7 2.6 0.00 0.00 0.00 67 1015.5
20260903054831 80 360 1.7 2.6 0.00 0.00 0.00 67 1015.5
20260903054729 80 359 1.7 2.6 0.00 0.00 0.00 68 1015.5
20260903054700 80 357 1.7 2.6 0.00 0.00 0.00 68 1015.5
20260903054558 80 360 1.7 2.6 0.00 0.00 0.00 68 1015.5
20260903054439 80 360 0.9 2.6 0.00 0.00 0.00 68 1015.5
20260903054338 80 359 0.9 2.6 0.00 0.00 0.00 68 1015.5
20260903054235 80 360 1.7 2.6 0.00 0.00 0.00 68 1015.6
20260903054134 80 360 1.7 2.6 0.00 0.00 0.00 68 1015.6
20260903054034 80 325 1.7 2.6 0.00 0.00 0.00 69 1015.6
20260903053931 80 360 1.7 2.6 0.00 0.00 0.00 68 1015.6
20260903053829 80 6 1.7 2.6 0.00 0.00 0.00 69 1015.6
20260903053732 80 13 1.7 2.6 0.00 0.00 0.00 68 1015.6
20260903053632 80 31 1.7 2.6 0.00 0.00 0.00 68 1015.6
20260903053530 80 31 1.7 2.6 0.00 0.00 0.00 68 1015.6
20260903053428 80 31 1.7 2.6 0.00 0.00 0.00 68 1015.6
20260903053326 80 32 0.9 1.7 0.00 0.00 0.00 69 1015.6
20260903053225 80 34 0.9 1.7 0.00 0.00 0.00 69 1015.6
20260903053155 80 34 0.9 1.7 0.00 0.00 0.00 68 1015.6
20260903053059 80 34 0.9 1.7 0.00 0.00 0.00 67 1015.6
20260903052937 80 32 0.9 1.7 0.00 0.00 0.00 66 1015.6
20260903052834 80 32 0.9 1.7 0.00 0.00 0.00 66 1015.6
20260903052732 80 34 0.9 1.7 0.00 0.00 0.00 66 1015.6
20260903052630 80 32 0.9 2.6 0.00 0.00 0.00 66 1015.6
20260903052531 80 34 0.9 2.6 0.00 0.00 0.00 66 1015.6
20260903052429 80 34 0.9 2.6 0.00 0.00 0.00 66 1015.6
20260903052332 80 32 0.9 2.6 0.00 0.00 0.00 66 1015.6
20260903052231 80 31 1.7 2.6 0.00 0.00 0.00 66 1015.6
20260903052130 80 32 1.7 2.6 0.00 0.00 0.00 67 1015.6
20260903052030 80 34 1.7 2.6 0.00 0.00 0.00 67 1015.6
20260903051928 80 32 1.7 2.6 0.00 0.00 0.00 67 1015.6
20260903051827 80 30 1.7 2.6 0.00 0.00 0.00 67 1015.6
20260903051737 80 34 1.7 2.6 0.00 0.00 0.00 67 1015.6
20260903051650 80 34 2.6 2.6 0.00 0.00 0.00 68 1015.6
20260903051528 80 34 1.7 2.6 0.00 0.00 0.00 68 1015.6
20260903051427 80 34 1.7 2.6 0.00 0.00 0.00 67 1015.6
20260903051325 80 32 2.6 2.6 0.00 0.00 0.00 67 1015.6
20260903051226 80 34 1.7 2.6 0.00 0.00 0.00 67 1014.7